KJ6MC Weather Reports


Display with metric or nautical units.
time (UTC)temp
F
wind
direction
speed
MPH
gust
MPH
rain 1hr
in
rain 24hr
in
rain mn
in
humidity
%
barometer
mb
20240618003316 82 321 4.0 16.0 0.00 0.00 0.00 19 1008.3
20240618003216 82 318 4.0 16.0 0.00 0.00 0.00 19 1008.3
20240618003116 82 11 4.0 16.0 0.00 0.00 0.00 19 1008.2
20240618003018 82 345 4.0 16.0 0.00 0.00 0.00 20 1008.3
20240618003014 82 337 4.0 16.0 0.00 0.00 0.00 20 1008.3
20240618002916 82 314 4.0 13.0 0.00 0.00 0.00 20 1008.3
20240618002815 82 311 4.0 13.0 0.00 0.00 0.00 20 1008.3
20240618002715 82 25 5.0 15.0 0.00 0.00 0.00 20 1008.5
20240618002616 82 315 5.0 15.0 0.00 0.00 0.00 21 1008.5
20240618002518 82 314 5.0 15.0 0.00 0.00 0.00 20 1008.5
20240618002514 82 321 5.0 15.0 0.00 0.00 0.00 20 1008.5
20240618002458 81 326 5.0 15.0 0.00 0.00 0.00 21 1008.5
20240618002416 82 12 5.0 15.0 0.00 0.00 0.00 20 1008.6
20240618002340 82 328 5.0 15.0 0.00 0.00 0.00 20 1008.6
20240618002216 82 358 5.0 15.0 0.00 0.00 0.00 21 1008.6
20240618002127 81 318 5.0 15.0 0.00 0.00 0.00 21 1008.6
20240618002118 81 314 5.0 15.0 0.00 0.00 0.00 21 1008.5
20240618001916 82 332 5.0 15.0 0.00 0.00 0.00 21 1008.5
20240618001811 82 329 5.0 15.0 0.00 0.00 0.00 21 1008.6
20240618001712 82 319 5.0 14.0 0.00 0.00 0.00 22 1008.6
20240618001612 82 318 5.0 14.0 0.00 0.00 0.00 21 1008.6
20240618001513 82 319 5.0 14.0 0.00 0.00 0.00 21 1008.6
20240618001412 82 316 5.0 14.0 0.00 0.00 0.00 21 1008.6
20240618001312 82 338 5.0 14.0 0.00 0.00 0.00 21 1008.7
20240618001212 82 335 5.0 14.0 0.00 0.00 0.00 22 1008.7
20240618001112 82 302 6.0 14.0 0.00 0.00 0.00 21 1008.7
20240618001014 82 302 6.0 14.0 0.00 0.00 0.00 21 1008.7
20240618000912 82 304 6.0 14.0 0.00 0.00 0.00 21 1008.7
20240618000811 82 314 6.0 14.0 0.00 0.00 0.00 21 1008.7
20240618000713 82 11 6.0 16.0 0.00 0.00 0.00 21 1008.7
20240618000612 82 284 6.0 16.0 0.00 0.00 0.00 20 1008.7
20240618000513 82 309 5.0 16.0 0.00 0.00 0.00 20 1008.7
20240618000412 82 298 5.0 16.0 0.00 0.00 0.00 20 1008.6
20240618000312 82 346 5.0 16.0 0.00 0.00 0.00 20 1008.6
20240618000212 82 1 5.0 16.0 0.00 0.00 0.00 20 1008.6
20240618000112 82 333 5.0 16.0 0.00 0.00 0.00 20 1008.6
20240618000013 82 315 5.0 16.0 0.00 0.00 0.00 19 1008.6
20240617235908 82 328 5.0 16.0 0.00 0.00 0.00 20 1008.6
20240617235808 82 307 5.0 16.0 0.00 0.00 0.00 19 1008.7
20240617235711 82 298 6.0 19.0 0.00 0.00 0.00 19 1008.7
20240617235608 82 321 6.0 19.0 0.00 0.00 0.00 19 1008.7
20240617235512 81 322 6.0 19.0 0.00 0.00 0.00 18 1008.7
20240617235508 81 304 6.0 19.0 0.00 0.00 0.00 18 1008.7
20240617235408 81 297 6.0 19.0 0.00 0.00 0.00 18 1008.7
20240617235308 81 39 6.0 19.0 0.00 0.00 0.00 18 1008.7
20240617235235 81 307 6.0 19.0 0.00 0.00 0.00 19 1008.6
20240617235208 81 304 6.0 19.0 0.00 0.00 0.00 19 1008.7
20240617235121 81 271 6.0 19.0 0.00 0.00 0.00 18 1008.7
20240617235113 81 309 6.0 19.0 0.00 0.00 0.00 19 1008.7
20240617234908 81 349 6.0 19.0 0.00 0.00 0.00 19 1008.6
20240617234808 81 348 6.0 19.0 0.00 0.00 0.00 19 1008.7
20240617234711 81 330 7.0 20.0 0.00 0.00 0.00 18 1008.7
20240617234608 81 336 7.0 20.0 0.00 0.00 0.00 18 1008.7
20240617234513 81 321 7.0 20.0 0.00 0.00 0.00 18 1008.8
20240617234509 81 288 7.0 20.0 0.00 0.00 0.00 18 1008.8
20240617234407 81 336 7.0 20.0 0.00 0.00 0.00 17 1008.8
20240617234308 81 313 7.0 20.0 0.00 0.00 0.00 18 1008.8
20240617234208 81 308 8.0 20.0 0.00 0.00 0.00 18 1008.9
20240617234108 81 304 8.0 20.0 0.00 0.00 0.00 17 1008.9
20240617234022 81 306 7.0 20.0 0.00 0.00 0.00 17 1008.9
20240617234003 81 30 7.0 20.0 0.00 0.00 0.00 17 1008.9
20240617233904 81 311 7.0 20.0 0.00 0.00 0.00 17 1009.0
20240617233803 81 23 7.0 20.0 0.00 0.00 0.00 16 1009.0
20240617233703 81 311 7.0 19.0 0.00 0.00 0.00 16 1009.0
20240617233603 81 300 7.0 21.0 0.00 0.00 0.00 17 1009.0
20240617233513 81 339 7.0 21.0 0.00 0.00 0.00 17 1009.0
20240617233504 81 315 7.0 21.0 0.00 0.00 0.00 17 1009.0
20240617233403 81 357 7.0 21.0 0.00 0.00 0.00 17 1009.0
20240617233303 82 346 6.0 21.0 0.00 0.00 0.00 16 1009.0
20240617233203 82 311 6.0 21.0 0.00 0.00 0.00 17 1009.0
20240617233104 81 302 6.0 21.0 0.00 0.00 0.00 17 1009.0
20240617233010 81 336 6.0 21.0 0.00 0.00 0.00 15 1009.0
20240617233004 81 337 6.0 21.0 0.00 0.00 0.00 15 1009.0
20240617232903 81 304 6.0 21.0 0.00 0.00 0.00 16 1009.0
20240617232804 81 333 6.0 21.0 0.00 0.00 0.00 17 1009.0
20240617232704 82 309 6.0 21.0 0.00 0.00 0.00 17 1009.0
20240617232604 82 294 6.0 20.0 0.00 0.00 0.00 18 1009.0
20240617232512 82 326 6.0 17.0 0.00 0.00 0.00 18 1008.9
20240617232504 82 326 6.0 17.0 0.00 0.00 0.00 19 1008.9
20240617232404 81 319 6.0 17.0 0.00 0.00 0.00 19 1008.9
20240617232306 81 26 6.0 17.0 0.00 0.00 0.00 19 1009.0
20240617232204 81 321 7.0 17.0 0.00 0.00 0.00 18 1008.9
20240617232104 81 308 7.0 17.0 0.00 0.00 0.00 17 1008.9
20240617232010 81 329 7.0 17.0 0.00 0.00 0.00 17 1008.9
20240617232004 81 322 7.0 17.0 0.00 0.00 0.00 17 1008.9
20240617231903 81 4 7.0 17.0 0.00 0.00 0.00 19 1008.9
20240617231804 81 290 7.0 17.0 0.00 0.00 0.00 19 1009.0
20240617231704 81 322 7.0 16.0 0.00 0.00 0.00 18 1009.0
20240617231605 81 19 7.0 16.0 0.00 0.00 0.00 18 1009.0
20240617231511 81 12 7.0 16.0 0.00 0.00 0.00 18 1009.0
20240617231505 81 333 7.0 16.0 0.00 0.00 0.00 18 1009.0
20240617231405 81 330 7.0 16.0 0.00 0.00 0.00 18 1009.0
20240617231303 81 9 7.0 16.0 0.00 0.00 0.00 18 1009.1
20240617231230 81 131 7.0 18.0 0.00 0.00 0.00 19 1009.1
20240617231204 81 18 7.0 18.0 0.00 0.00 0.00 18 1009.1
20240617231118 81 332 7.0 18.0 0.00 0.00 0.00 19 1009.1
20240617231003 81 300 7.0 18.0 0.00 0.00 0.00 19 1009.0
20240617230859 81 347 6.0 18.0 0.00 0.00 0.00 19 1009.0
20240617230759 81 347 6.0 18.0 0.00 0.00 0.00 18 1009.0
20240617230731 81 323 7.0 18.0 0.00 0.00 0.00 18 1009.0
20240617230700 81 311 6.0 18.0 0.00 0.00 0.00 18 1009.0
20240617230618 81 326 7.0 18.0 0.00 0.00 0.00 19 1009.0
20240617230459 81 329 7.0 18.0 0.00 0.00 0.00 18 1009.0
20240617230359 81 316 7.0 18.0 0.00 0.00 0.00 18 1009.0
20240617230259 81 27 6.0 18.0 0.00 0.00 0.00 18 1009.1
20240617230159 81 347 6.0 16.0 0.00 0.00 0.00 18 1009.1
20240617230059 81 330 6.0 16.0 0.00 0.00 0.00 19 1009.1
20240617230009 81 8 6.0 16.0 0.00 0.00 0.00 19 1009.1
20240617225959 81 22 6.0 16.0 0.00 0.00 0.00 19 1009.2
20240617225859 81 323 6.0 16.0 0.00 0.00 0.00 19 1009.1
20240617225800 81 321 6.0 16.0 0.00 0.00 0.00 19 1009.2
20240617225659 81 291 5.0 16.0 0.00 0.00 0.00 19 1009.1
20240617225559 81 325 5.0 16.0 0.00 0.00 0.00 20 1009.1
20240617225512 81 345 5.0 16.0 0.00 0.00 0.00 20 1009.1
20240617225500 81 46 5.0 16.0 0.00 0.00 0.00 20 1009.1
20240617225357 81 339 5.0 16.0 0.00 0.00 0.00 21 1009.1
20240617225257 81 301 5.0 16.0 0.00 0.00 0.00 20 1009.1
20240617225157 81 350 5.0 14.0 0.00 0.00 0.00 20 1009.1
20240617225055 81 0 5.0 14.0 0.00 0.00 0.00 20 1009.1
20240617225009 82 342 5.0 14.0 0.00 0.00 0.00 20 1009.1
20240617224955 82 30 5.0 16.0 0.00 0.00 0.00 20 1009.2
20240617224855 82 311 5.0 16.0 0.00 0.00 0.00 20 1009.1
20240617224755 81 353 5.0 16.0 0.00 0.00 0.00 20 1009.0
20240617224655 81 295 5.0 16.0 0.00 0.00 0.00 21 1009.0
20240617224554 81 319 5.0 16.0 0.00 0.00 0.00 20 1009.0
20240617224506 81 297 5.0 16.0 0.00 0.00 0.00 20 1009.0
20240617224449 81 337 5.0 16.0 0.00 0.00 0.00 20 1009.1
20240617224350 81 9 5.0 16.0 0.00 0.00 0.00 20 1009.1
20240617224249 81 245 5.0 16.0 0.00 0.00 0.00 20 1009.1
20240617224147 81 358 5.0 16.0 0.00 0.00 0.00 20 1009.1
20240617224049 81 6 5.0 16.0 0.00 0.00 0.00 20 1009.1
20240617224017 81 287 5.0 16.0 0.00 0.00 0.00 19 1009.1
20240617223941 81 328 5.0 16.0 0.00 0.00 0.00 20 1009.2
20240617223842 81 13 5.0 16.0 0.00 0.00 0.00 20 1009.1
20240617223743 81 339 5.0 16.0 0.00 0.00 0.00 20 1009.2
20240617223641 81 305 5.0 16.0 0.00 0.00 0.00 20 1009.1
20240617223540 81 314 5.0 16.0 0.00 0.00 0.00 20 1009.1
20240617223506 81 340 5.0 16.0 0.00 0.00 0.00 19 1009.1
20240617223437 81 308 5.0 16.0 0.00 0.00 0.00 20 1009.1
20240617223335 81 306 5.0 16.0 0.00 0.00 0.00 20 1009.1
20240617223235 81 318 5.0 16.0 0.00 0.00 0.00 20 1009.1
20240617223135 81 357 6.0 16.0 0.00 0.00 0.00 19 1009.1
20240617223032 81 330 6.0 19.0 0.00 0.00 0.00 20 1009.1
20240617223004 81 290 6.0 19.0 0.00 0.00 0.00 19 1009.1
20240617222927 81 325 7.0 19.0 0.00 0.00 0.00 20 1009.1
20240617222827 80 294 7.0 19.0 0.00 0.00 0.00 19 1009.1
20240617222725 80 295 7.0 19.0 0.00 0.00 0.00 20 1009.1
20240617222625 80 302 7.0 19.0 0.00 0.00 0.00 20 1009.2
20240617222525 80 318 7.0 19.0 0.00 0.00 0.00 19 1009.2
20240617222503 80 294 7.0 19.0 0.00 0.00 0.00 20 1009.1
20240617222420 80 5 7.0 19.0 0.00 0.00 0.00 19 1009.1
20240617222319 80 27 7.0 19.0 0.00 0.00 0.00 20 1009.2
20240617222219 80 315 7.0 19.0 0.00 0.00 0.00 20 1009.1
20240617222117 80 338 7.0 19.0 0.00 0.00 0.00 20 1009.1
20240617222030 81 350 7.0 17.0 0.00 0.00 0.00 20 1009.2
20240617222016 81 314 7.0 17.0 0.00 0.00 0.00 20 1009.2
20240617221912 81 346 7.0 14.0 0.00 0.00 0.00 20 1009.2
20240617221812 81 302 6.0 13.0 0.00 0.00 0.00 20 1009.3
20240617221712 81 354 6.0 13.0 0.00 0.00 0.00 21 1009.3
20240617221610 81 350 6.0 13.0 0.00 0.00 0.00 20 1009.2
20240617221512 81 20 6.0 15.0 0.00 0.00 0.00 20 1009.3
20240617221506 81 20 6.0 15.0 0.00 0.00 0.00 21 1009.3
20240617221454 81 325 5.0 16.0 0.00 0.00 0.00 21 1009.4
20240617221405 81 323 6.0 15.0 0.00 0.00 0.00 21 1009.3
20240617221336 81 319 6.0 16.0 0.00 0.00 0.00 21 1009.2
20240617221205 81 333 6.0 16.0 0.00 0.00 0.00 21 1009.3
20240617221117 81 307 6.0 16.0 0.00 0.00 0.00 21 1009.4
20240617221109 81 325 5.0 16.0 0.00 0.00 0.00 21 1009.4
20240617220857 81 336 5.0 16.0 0.00 0.00 0.00 21 1009.4
20240617220755 81 314 6.0 16.0 0.00 0.00 0.00 21 1009.3
20240617220726 81 321 5.0 16.0 0.00 0.00 0.00 21 1009.2
20240617220655 81 347 6.0 16.0 0.00 0.00 0.00 20 1009.3
20240617220612 81 307 6.0 16.0 0.00 0.00 0.00 21 1009.3
20240617220454 81 330 5.0 16.0 0.00 0.00 0.00 21 1009.2
20240617220352 81 328 5.0 16.0 0.00 0.00 0.00 22 1009.2
20240617220252 81 321 5.0 16.0 0.00 0.00 0.00 21 1009.2
20240617220150 81 307 5.0 16.0 0.00 0.00 0.00 22 1009.3
20240617220049 81 304 5.0 16.0 0.00 0.00 0.00 22 1009.3
20240617220000 81 311 5.0 16.0 0.00 0.00 0.00 21 1009.3
20240617215947 81 302 5.0 16.0 0.00 0.00 0.00 21 1009.3
20240617215841 81 288 5.0 16.0 0.00 0.00 0.00 20 1009.3
20240617215743 81 302 5.0 16.0 0.00 0.00 0.00 19 1009.4
20240617215641 81 290 4.0 16.0 0.00 0.00 0.00 21 1009.3
20240617215542 81 18 4.0 12.0 0.00 0.00 0.00 23 1009.5
20240617215500 81 312 4.0 12.0 0.00 0.00 0.00 23 1009.5
20240617215440 81 152 4.0 12.0 0.00 0.00 0.00 23 1009.5
20240617215336 81 328 5.0 20.0 0.00 0.00 0.00 22 1009.5
20240617215234 80 342 4.0 20.0 0.00 0.00 0.00 24 1009.5
20240617215227 80 332 6.0 20.0 0.00 0.00 0.00 23 1009.6
20240617215133 80 33 5.0 20.0 0.00 0.00 0.00 23 1009.6
20240617215107 80 340 5.0 20.0 0.00 0.00 0.00 23 1009.6
20240617214931 80 330 6.0 20.0 0.00 0.00 0.00 23 1009.6
20240617214826 80 353 5.0 20.0 0.00 0.00 0.00 23 1009.6
20240617214730 80 311 7.0 20.0 0.00 0.00 0.00 22 1009.7
20240617214726 80 346 6.0 20.0 0.00 0.00 0.00 22 1009.6
20240617214625 80 336 6.0 20.0 0.00 0.00 0.00 22 1009.6
20240617214608 80 340 7.0 20.0 0.00 0.00 0.00 23 1009.6
20240617214423 80 309 7.0 20.0 0.00 0.00 0.00 22 1009.7
20240617214318 80 0 7.0 16.0 0.00 0.00 0.00 22 1009.6
20240617214221 80 309 7.0 16.0 0.00 0.00 0.00 22 1009.6
20240617214216 80 350 6.0 16.0 0.00 0.00 0.00 22 1009.7
20240617214118 80 318 7.0 16.0 0.00 0.00 0.00 22 1009.7
20240617214106 80 353 6.0 16.0 0.00 0.00 0.00 22 1009.7
20240617213916 80 326 6.0 16.0 0.00 0.00 0.00 22 1009.7
20240617213810 80 323 6.0 16.0 0.00 0.00 0.00 22 1009.7
20240617213709 80 340 6.0 16.0 0.00 0.00 0.00 22 1009.7
20240617213610 80 307 6.0 16.0 0.00 0.00 0.00 22 1009.6
20240617213509 80 278 6.0 16.0 0.00 0.00 0.00 23 1009.7
20240617213457 80 307 6.0 16.0 0.00 0.00 0.00 23 1009.7
20240617213409 80 323 6.0 16.0 0.00 0.00 0.00 24 1009.6
20240617213306 80 319 6.0 16.0 0.00 0.00 0.00 24 1009.6
20240617213205 80 290 6.0 16.0 0.00 0.00 0.00 23 1009.6
20240617213104 80 25 6.0 16.0 0.00 0.00 0.00 24 1009.6
20240617213005 80 322 6.0 16.0 0.00 0.00 0.00 24 1009.7
20240617213000 80 339 6.0 16.0 0.00 0.00 0.00 24 1009.7
20240617212901 80 328 5.0 16.0 0.00 0.00 0.00 23 1009.7
20240617212756 80 321 5.0 16.0 0.00 0.00 0.00 23 1009.7
20240617212657 80 290 4.0 16.0 0.00 0.00 0.00 23 1009.8
20240617212556 80 340 3.0 16.0 0.00 0.00 0.00 24 1009.9
20240617212500 80 314 4.0 11.0 0.00 0.00 0.00 25 1009.8
20240617212356 80 307 3.0 11.0 0.00 0.00 0.00 24 1009.9
20240617212251 80 357 4.0 11.0 0.00 0.00 0.00 26 1010.0
20240617212151 81 321 4.0 11.0 0.00 0.00 0.00 25 1010.0
20240617212051 80 340 4.0 11.0 0.00 0.00 0.00 27 1010.1
20240617211958 80 320 4.0 11.0 0.00 0.00 0.00 28 1010.1
20240617211951 80 323 4.0 11.0 0.00 0.00 0.00 28 1010.1
20240617211856 80 322 4.0 11.0 0.00 0.00 0.00 28 1010.0
20240617211815 80 39 4.0 11.0 0.00 0.00 0.00 26 1010.0
20240617211644 80 332 4.0 11.0 0.00 0.00 0.00 28 1010.0
20240617211543 80 15 4.0 11.0 0.00 0.00 0.00 28 1010.0
20240617211455 80 8 4.0 11.0 0.00 0.00 0.00 28 1010.1
20240617211445 79 326 4.0 11.0 0.00 0.00 0.00 28 1010.1
20240617211342 79 300 4.0 11.0 0.00 0.00 0.00 27 1010.0
20240617211244 79 357 4.0 11.0 0.00 0.00 0.00 27 1010.1
20240617211138 79 314 4.0 11.0 0.00 0.00 0.00 27 1010.1
20240617211039 80 5 4.0 12.0 0.00 0.00 0.00 27 1010.0
20240617210954 79 304 4.0 12.0 0.00 0.00 0.00 27 1010.0
20240617210938 79 41 4.0 12.0 0.00 0.00 0.00 27 1010.0
20240617210842 79 335 4.0 12.0 0.00 0.00 0.00 27 1010.0
20240617210748 79 326 5.0 12.0 0.00 0.00 0.00 27 1010.0
20240617210720 79 318 4.0 12.0 0.00 0.00 0.00 27 1010.1
20240617210637 79 338 4.0 12.0 0.00 0.00 0.00 28 1010.0
20240617210603 79 336 4.0 12.0 0.00 0.00 0.00 27 1010.0
20240617210436 79 314 4.0 12.0 0.00 0.00 0.00 27 1010.1
20240617210338 79 309 5.0 12.0 0.00 0.00 0.00 28 1010.1
20240617210237 79 323 5.0 12.0 0.00 0.00 0.00 28 1010.1
20240617210142 79 9 5.0 12.0 0.00 0.00 0.00 28 1010.1
20240617210037 79 4 5.0 14.0 0.00 0.00 0.00 28 1010.1
20240617205954 79 334 5.0 14.0 0.00 0.00 0.00 27 1010.1
20240617205940 79 44 5.0 14.0 0.00 0.00 0.00 27 1010.1
20240617205840 79 311 5.0 14.0 0.00 0.00 0.00 28 1010.1
20240617205749 79 291 5.0 14.0 0.00 0.00 0.00 29 1010.2
20240617205729 78 337 4.0 14.0 0.00 0.00 0.00 28 1010.2
20240617205638 78 332 5.0 14.0 0.00 0.00 0.00 29 1010.1
20240617205614 78 5 5.0 14.0 0.00 0.00 0.00 28 1010.2
20240617205431 78 326 4.0 14.0 0.00 0.00 0.00 27 1010.2
20240617205331 79 325 4.0 14.0 0.00 0.00 0.00 27 1010.3
20240617205240 79 311 4.0 14.0 0.00 0.00 0.00 27 1010.2
20240617205132 79 276 3.0 14.0 0.00 0.00 0.00 27 1010.3
20240617205023 79 298 3.0 10.0 0.00 0.00 0.00 29 1010.2
20240617205002 79 340 4.0 11.0 0.00 0.00 0.00 29 1010.3
20240617204923 79 315 4.0 12.0 0.00 0.00 0.00 28 1010.3
20240617204823 79 333 3.0 12.0 0.00 0.00 0.00 30 1010.2
20240617204722 79 319 3.0 12.0 0.00 0.00 0.00 30 1010.2
20240617204622 79 357 4.0 12.0 0.00 0.00 0.00 30 1010.2
20240617204520 79 269 4.0 12.0 0.00 0.00 0.00 30 1010.2
20240617204450 78 319 4.0 12.0 0.00 0.00 0.00 30 1010.2
20240617204421 78 312 4.0 12.0 0.00 0.00 0.00 30 1010.2
20240617204221 78 357 4.0 12.0 0.00 0.00 0.00 29 1010.2
20240617204121 78 284 5.0 12.0 0.00 0.00 0.00 29 1010.3
20240617204022 78 328 5.0 14.0 0.00 0.00 0.00 28 1010.3
20240617204002 78 336 5.0 14.0 0.00 0.00 0.00 29 1010.3
20240617203921 78 308 5.0 14.0 0.00 0.00 0.00 30 1010.3
20240617203821 78 300 4.0 14.0 0.00 0.00 0.00 31 1010.3
20240617203720 78 346 4.0 14.0 0.00 0.00 0.00 32 1010.4
20240617203619 78 74 5.0 14.0 0.00 0.00 0.00 30 1010.5
20240617203520 78 309 5.0 14.0 0.00 0.00 0.00 29 1010.5
20240617203450 78 294 5.0 14.0 0.00 0.00 0.00 30 1010.6
20240617203416 78 307 5.0 14.0 0.00 0.00 0.00 31 1010.6
20240617203317 78 332 5.0 14.0 0.00 0.00 0.00 30 1010.6
20240617203217 78 344 5.0 14.0 0.00 0.00 0.00 30 1010.6
20240617203117 78 354 5.0 14.0 0.00 0.00 0.00 29 1010.7
20240617203017 78 337 5.0 14.0 0.00 0.00 0.00 30 1010.6
20240617202950 78 339 4.0 14.0 0.00 0.00 0.00 32 1010.7
20240617202916 78 41 4.0 14.0 0.00 0.00 0.00 32 1010.7
20240617202811 78 321 5.0 14.0 0.00 0.00 0.00 31 1010.7
20240617202710 78 319 5.0 14.0 0.00 0.00 0.00 30 1010.8
20240617202611 78 340 5.0 14.0 0.00 0.00 0.00 30 1010.7
20240617202511 78 316 5.0 14.0 0.00 0.00 0.00 30 1010.8
20240617202448 78 294 5.0 14.0 0.00 0.00 0.00 31 1010.8
20240617202409 78 13 5.0 14.0 0.00 0.00 0.00 31 1010.7
20240617202306 78 15 5.0 14.0 0.00 0.00 0.00 30 1010.7
20240617202203 78 5 6.0 14.0 0.00 0.00 0.00 31 1010.7
20240617202103 78 20 5.0 14.0 0.00 0.00 0.00 32 1010.7
20240617202007 77 30 5.0 14.0 0.00 0.00 0.00 31 1010.7
20240617202000 77 343 6.0 14.0 0.00 0.00 0.00 31 1010.7
20240617201902 77 330 5.0 14.0 0.00 0.00 0.00 30 1010.7
20240617201803 78 300 5.0 14.0 0.00 0.00 0.00 30 1010.7
20240617201700 78 309 5.0 14.0 0.00 0.00 0.00 30 1010.7
20240617201601 78 318 4.0 14.0 0.00 0.00 0.00 31 1010.8
20240617201501 77 314 4.0 13.0 0.00 0.00 0.00 31 1010.7
20240617201449 77 290 4.0 13.0 0.00 0.00 0.00 31 1010.7
20240617201400 77 321 4.0 13.0 0.00 0.00 0.00 31 1010.7
20240617201301 77 315 4.0 13.0 0.00 0.00 0.00 31 1010.6
20240617201201 78 344 4.0 13.0 0.00 0.00 0.00 31 1010.7
20240617201100 78 320 4.0 13.0 0.00 0.00 0.00 31 1010.7
20240617201000 78 325 4.0 13.0 0.00 0.00 0.00 31 1010.7
20240617200946 78 12 4.0 13.0 0.00 0.00 0.00 31 1010.7
20240617200859 78 302 4.0 13.0 0.00 0.00 0.00 32 1010.8
20240617200759 77 321 4.0 13.0 0.00 0.00 0.00 32 1010.8
20240617200657 77 302 5.0 13.0 0.00 0.00 0.00 33 1010.8
20240617200557 77 279 5.0 13.0 0.00 0.00 0.00 32 1010.8
20240617200456 77 316 5.0 13.0 0.00 0.00 0.00 32 1010.9
20240617200447 77 336 5.0 13.0 0.00 0.00 0.00 32 1010.9
20240617200357 77 312 6.0 13.0 0.00 0.00 0.00 31 1010.8
20240617200258 77 8 6.0 13.0 0.00 0.00 0.00 32 1010.9
20240617200202 76 321 6.0 16.0 0.00 0.00 0.00 32 1010.9
20240617200156 77 293 6.0 14.0 0.00 0.00 0.00 31 1010.9
20240617200103 76 1 6.0 16.0 0.00 0.00 0.00 32 1010.9
20240617200054 76 318 6.0 16.0 0.00 0.00 0.00 32 1010.9
20240617195851 76 40 6.0 16.0 0.00 0.00 0.00 32 1010.9
20240617195751 76 301 6.0 16.0 0.00 0.00 0.00 33 1010.9
20240617195649 76 316 6.0 16.0 0.00 0.00 0.00 32 1010.9
20240617195545 76 319 6.0 16.0 0.00 0.00 0.00 32 1010.9
20240617195449 76 298 6.0 16.0 0.00 0.00 0.00 32 1010.9
20240617195345 76 318 7.0 16.0 0.00 0.00 0.00 32 1010.9
20240617195244 76 319 7.0 16.0 0.00 0.00 0.00 31 1010.9
20240617195142 76 343 7.0 16.0 0.00 0.00 0.00 31 1010.8
20240617195039 76 338 7.0 16.0 0.00 0.00 0.00 31 1010.9
20240617194947 76 307 7.0 16.0 0.00 0.00 0.00 32 1010.9
20240617194940 76 302 7.0 16.0 0.00 0.00 0.00 32 1010.9
20240617194932 76 300 6.0 17.0 0.00 0.00 0.00 32 1010.9
20240617194836 76 295 7.0 16.0 0.00 0.00 0.00 32 1010.9
20240617194814 76 325 7.0 17.0 0.00 0.00 0.00 33 1010.8
20240617194634 76 47 7.0 17.0 0.00 0.00 0.00 33 1010.9
20240617194553 76 337 7.0 17.0 0.00 0.00 0.00 31 1010.9
20240617194429 76 340 6.0 17.0 0.00 0.00 0.00 32 1010.9
20240617194328 76 311 6.0 17.0 0.00 0.00 0.00 32 1010.9
20240617194229 76 304 6.0 17.0 0.00 0.00 0.00 32 1010.9
20240617194126 76 315 6.0 17.0 0.00 0.00 0.00 32 1010.9
20240617194021 76 339 5.0 17.0 0.00 0.00 0.00 32 1010.8
20240617193946 76 298 5.0 17.0 0.00 0.00 0.00 32 1010.8
20240617193922 76 323 5.0 17.0 0.00 0.00 0.00 32 1010.8
20240617193820 76 302 5.0 17.0 0.00 0.00 0.00 32 1010.9
20240617193720 76 333 5.0 16.0 0.00 0.00 0.00 32 1010.8
20240617193620 76 340 5.0 12.0 0.00 0.00 0.00 32 1011.0
20240617193516 76 336 5.0 12.0 0.00 0.00 0.00 33 1010.9
20240617193441 76 325 5.0 12.0 0.00 0.00 0.00 33 1010.9
20240617193417 76 284 5.0 12.0 0.00 0.00 0.00 32 1010.9
20240617193316 76 333 5.0 12.0 0.00 0.00 0.00 32 1010.9
20240617193216 76 329 5.0 12.0 0.00 0.00 0.00 33 1010.9
20240617193118 76 336 5.0 12.0 0.00 0.00 0.00 34 1010.9
20240617193009 76 311 5.0 12.0 0.00 0.00 0.00 33 1010.9
20240617192943 76 357 5.0 12.0 0.00 0.00 0.00 33 1011.0
20240617192908 76 0 5.0 12.0 0.00 0.00 0.00 33 1011.0
20240617192809 76 1 5.0 12.0 0.00 0.00 0.00 32 1011.0
20240617192709 76 311 5.0 12.0 0.00 0.00 0.00 32 1011.1
20240617192608 76 25 5.0 14.0 0.00 0.00 0.00 34 1011.1
20240617192503 76 319 5.0 14.0 0.00 0.00 0.00 34 1011.2
20240617192440 76 318 5.0 14.0 0.00 0.00 0.00 34 1011.2
20240617192402 76 4 5.0 14.0 0.00 0.00 0.00 34 1011.1
20240617192306 76 319 5.0 14.0 0.00 0.00 0.00 34 1011.2
20240617192203 76 340 5.0 14.0 0.00 0.00 0.00 33 1011.3
20240617192103 76 316 5.0 14.0 0.00 0.00 0.00 34 1011.2
20240617191957 76 68 5.0 14.0 0.00 0.00 0.00 34 1011.2
20240617191938 76 316 5.0 14.0 0.00 0.00 0.00 34 1011.2
20240617191857 76 311 5.0 14.0 0.00 0.00 0.00 34 1011.2
20240617191801 75 9 5.0 14.0 0.00 0.00 0.00 33 1011.2
20240617191657 75 307 5.0 14.0 0.00 0.00 0.00 33 1011.3
20240617191556 75 284 5.0 13.0 0.00 0.00 0.00 34 1011.3
20240617191450 75 338 5.0 13.0 0.00 0.00 0.00 34 1011.3
20240617191437 75 260 5.0 13.0 0.00 0.00 0.00 33 1011.3
20240617191351 75 26 5.0 13.0 0.00 0.00 0.00 33 1011.3
20240617191251 75 316 5.0 13.0 0.00 0.00 0.00 33 1011.3
20240617191150 75 287 5.0 13.0 0.00 0.00 0.00 34 1011.4
20240617191050 75 15 4.0 12.0 0.00 0.00 0.00 33 1011.3
20240617190947 75 333 4.0 12.0 0.00 0.00 0.00 34 1011.4
20240617190938 75 319 4.0 12.0 0.00 0.00 0.00 33 1011.4
20240617190847 75 323 4.0 12.0 0.00 0.00 0.00 33 1011.3
20240617190747 75 333 4.0 12.0 0.00 0.00 0.00 33 1011.3
20240617190647 75 301 4.0 11.0 0.00 0.00 0.00 34 1011.3
20240617190544 75 5 4.0 11.0 0.00 0.00 0.00 33 1011.2
20240617190445 75 302 4.0 11.0 0.00 0.00 0.00 34 1011.2
20240617190441 75 340 4.0 11.0 0.00 0.00 0.00 34 1011.2
20240617190338 75 304 4.0 11.0 0.00 0.00 0.00 33 1011.2
20240617190238 75 339 4.0 14.0 0.00 0.00 0.00 35 1011.3
20240617190140 75 1 4.0 14.0 0.00 0.00 0.00 34 1011.3
20240617190037 75 300 5.0 14.0 0.00 0.00 0.00 34 1011.4
20240617185942 75 57 5.0 14.0 0.00 0.00 0.00 33 1011.4
20240617185935 75 311 5.0 14.0 0.00 0.00 0.00 33 1011.4
20240617185835 75 290 5.0 14.0 0.00 0.00 0.00 34 1011.3
20240617185734 75 1 5.0 14.0 0.00 0.00 0.00 35 1011.3
20240617185633 74 290 6.0 14.0 0.00 0.00 0.00 35 1011.3
20240617185532 74 318 5.0 14.0 0.00 0.00 0.00 34 1011.2
20240617185435 74 294 6.0 14.0 0.00 0.00 0.00 35 1011.3
20240617185428 74 307 6.0 14.0 0.00 0.00 0.00 35 1011.3
20240617185328 74 329 6.0 14.0 0.00 0.00 0.00 34 1011.3
20240617185228 74 307 6.0 17.0 0.00 0.00 0.00 34 1011.2
20240617185127 74 323 6.0 17.0 0.00 0.00 0.00 34 1011.2
20240617185025 74 339 5.0 17.0 0.00 0.00 0.00 34 1011.2
20240617184936 74 315 5.0 17.0 0.00 0.00 0.00 34 1011.2
20240617184923 74 336 5.0 17.0 0.00 0.00 0.00 34 1011.2
20240617184821 74 319 5.0 17.0 0.00 0.00 0.00 34 1011.2
20240617184720 74 309 5.0 17.0 0.00 0.00 0.00 35 1011.2
20240617184653 74 293 5.0 17.0 0.00 0.00 0.00 34 1011.2
20240617184620 74 321 5.0 17.0 0.00 0.00 0.00 34 1011.1
20240617184544 74 326 5.0 17.0 0.00 0.00 0.00 34 1011.2
20240617184415 74 354 5.0 17.0 0.00 0.00 0.00 34 1011.2
20240617184314 74 32 4.0 17.0 0.00 0.00 0.00 34 1011.1
20240617184214 74 15 4.0 12.0 0.00 0.00 0.00 35 1011.1
20240617184115 74 297 4.0 11.0 0.00 0.00 0.00 34 1011.1
20240617184014 74 264 4.0 11.0 0.00 0.00 0.00 34 1011.1
20240617183936 74 37 4.0 10.0 0.00 0.00 0.00 34 1011.1
20240617183908 74 270 4.0 10.0 0.00 0.00 0.00 34 1011.1
20240617183808 74 316 4.0 10.0 0.00 0.00 0.00 34 1011.1
20240617183709 74 329 4.0 11.0 0.00 0.00 0.00 34 1011.1
20240617183609 74 357 4.0 11.0 0.00 0.00 0.00 34 1011.1
20240617183518 74 346 4.0 17.0 0.00 0.00 0.00 34 1011.1
20240617183446 74 18 5.0 17.0 0.00 0.00 0.00 34 1011.1
20240617183405 74 311 5.0 17.0 0.00 0.00 0.00 34 1011.1
20240617183304 74 289 5.0 17.0 0.00 0.00 0.00 34 1011.1
20240617183204 74 321 4.0 17.0 0.00 0.00 0.00 34 1011.2
20240617183105 73 307 4.0 17.0 0.00 0.00 0.00 34 1011.2
20240617183006 73 284 4.0 17.0 0.00 0.00 0.00 34 1011.2
20240617182933 73 255 4.0 17.0 0.00 0.00 0.00 35 1011.2
20240617182905 73 315 4.0 17.0 0.00 0.00 0.00 35 1011.2
20240617182805 73 330 4.0 17.0 0.00 0.00 0.00 33 1011.3
20240617182705 74 356 4.0 17.0 0.00 0.00 0.00 34 1011.3
20240617182604 74 321 3.0 17.0 0.00 0.00 0.00 34 1011.2
20240617182504 74 343 3.0 10.0 0.00 0.00 0.00 34 1011.2
20240617182433 74 359 3.0 10.0 0.00 0.00 0.00 34 1011.2
20240617182405 73 319 4.0 10.0 0.00 0.00 0.00 35 1011.2
20240617182306 73 291 4.0 12.0 0.00 0.00 0.00 35 1011.1
20240617182205 73 305 4.0 14.0 0.00 0.00 0.00 35 1011.2
20240617182105 73 67 5.0 14.0 0.00 0.00 0.00 35 1011.2
20240617182005 72 5 5.0 14.0 0.00 0.00 0.00 35 1011.2
20240617181933 72 286 5.0 14.0 0.00 0.00 0.00 35 1011.2
20240617181904 72 321 5.0 14.0 0.00 0.00 0.00 35 1011.2
20240617181804 72 340 6.0 14.0 0.00 0.00 0.00 36 1011.2
20240617181701 72 285 6.0 14.0 0.00 0.00 0.00 35 1011.3
20240617181559 72 316 6.0 14.0 0.00 0.00 0.00 35 1011.3
20240617181459 72 345 6.0 14.0 0.00 0.00 0.00 35 1011.3
20240617181432 72 304 6.0 14.0 0.00 0.00 0.00 35 1011.3
20240617181359 72 332 6.0 14.0 0.00 0.00 0.00 34 1011.2
20240617181257 72 307 5.0 14.0 0.00 0.00 0.00 34 1011.2
20240617181153 72 340 5.0 14.0 0.00 0.00 0.00 35 1011.3
20240617181051 72 298 5.0 13.0 0.00 0.00 0.00 34 1011.3
20240617180953 72 303 5.0 13.0 0.00 0.00 0.00 34 1011.3
20240617180931 72 323 5.0 13.0 0.00 0.00 0.00 34 1011.3
20240617180852 72 312 5.0 13.0 0.00 0.00 0.00 35 1011.3
20240617180750 72 339 4.0 13.0 0.00 0.00 0.00 35 1011.4
20240617180649 72 350 5.0 13.0 0.00 0.00 0.00 35 1011.3
20240617180549 72 8 5.0 13.0 0.00 0.00 0.00 35 1011.4
20240617180448 72 305 5.0 13.0 0.00 0.00 0.00 34 1011.4
20240617180430 72 321 5.0 13.0 0.00 0.00 0.00 34 1011.4
20240617180350 72 308 5.0 13.0 0.00 0.00 0.00 34 1011.5
20240617180248 72 249 4.0 13.0 0.00 0.00 0.00 34 1011.5
20240617180148 72 281 4.0 13.0 0.00 0.00 0.00 35 1011.4
20240617180049 72 13 5.0 13.0 0.00 0.00 0.00 35 1011.4
20240617175949 72 43 5.0 12.0 0.00 0.00 0.00 35 1011.4
20240617175929 72 305 5.0 12.0 0.00 0.00 0.00 35 1011.4
20240617175848 72 314 5.0 12.0 0.00 0.00 0.00 35 1011.4
20240617175746 72 340 5.0 12.0 0.00 0.00 0.00 35 1011.4
20240617175647 72 304 5.0 12.0 0.00 0.00 0.00 35 1011.4
20240617175544 72 309 5.0 12.0 0.00 0.00 0.00 35 1011.4
20240617175445 72 321 6.0 12.0 0.00 0.00 0.00 35 1011.5
20240617175429 72 328 6.0 12.0 0.00 0.00 0.00 35 1011.5
20240617175345 72 300 6.0 14.0 0.00 0.00 0.00 35 1011.5
20240617175245 72 316 6.0 14.0 0.00 0.00 0.00 35 1011.5
20240617175145 72 347 6.0 14.0 0.00 0.00 0.00 35 1011.6
20240617175044 72 314 6.0 14.0 0.00 0.00 0.00 34 1011.6
20240617174939 72 63 6.0 14.0 0.00 0.00 0.00 35 1011.5
20240617174927 72 13 6.0 14.0 0.00 0.00 0.00 35 1011.5
20240617174839 71 332 6.0 15.0 0.00 0.00 0.00 35 1011.6
20240617174738 71 328 6.0 15.0 0.00 0.00 0.00 35 1011.5
20240617174639 71 352 6.0 15.0 0.00 0.00 0.00 34 1011.6
20240617174537 72 316 6.0 15.0 0.00 0.00 0.00 34 1011.6
20240617174435 72 307 6.0 15.0 0.00 0.00 0.00 34 1011.6
20240617174428 72 318 6.0 15.0 0.00 0.00 0.00 34 1011.6
20240617174330 72 338 6.0 15.0 0.00 0.00 0.00 35 1011.6
20240617174231 72 311 6.0 16.0 0.00 0.00 0.00 36 1011.6
20240617174133 72 64 6.0 16.0 0.00 0.00 0.00 35 1011.5
20240617174030 72 319 6.0 16.0 0.00 0.00 0.00 36 1011.6
20240617173932 72 343 6.0 16.0 0.00 0.00 0.00 35 1011.4
20240617173924 72 18 6.0 16.0 0.00 0.00 0.00 35 1011.4
20240617173825 72 30 6.0 16.0 0.00 0.00 0.00 36 1011.5
20240617173725 71 316 6.0 16.0 0.00 0.00 0.00 36 1011.5
20240617173644 71 340 6.0 16.0 0.00 0.00 0.00 36 1011.4
20240617173624 71 4 6.0 16.0 0.00 0.00 0.00 36 1011.4
20240617173535 71 332 6.0 16.0 0.00 0.00 0.00 37 1011.5
20240617173419 71 321 6.0 16.0 0.00 0.00 0.00 36 1011.4
20240617173318 71 20 6.0 16.0 0.00 0.00 0.00 36 1011.4
20240617173219 71 0 6.0 16.0 0.00 0.00 0.00 36 1011.4
20240617173119 71 1 6.0 16.0 0.00 0.00 0.00 37 1011.5
20240617173018 71 311 6.0 16.0 0.00 0.00 0.00 37 1011.4
20240617172927 71 294 6.0 16.0 0.00 0.00 0.00 37 1011.5
20240617172909 71 307 6.0 16.0 0.00 0.00 0.00 37 1011.5
20240617172809 71 326 6.0 16.0 0.00 0.00 0.00 38 1011.5
20240617172709 71 338 6.0 16.0 0.00 0.00 0.00 38 1011.4
20240617172609 71 12 6.0 16.0 0.00 0.00 0.00 37 1011.5
20240617172507 71 311 6.0 15.0 0.00 0.00 0.00 37 1011.5
20240617172425 71 316 6.0 14.0 0.00 0.00 0.00 37 1011.5
20240617172401 71 309 6.0 14.0 0.00 0.00 0.00 37 1011.5
20240617172301 71 321 6.0 14.0 0.00 0.00 0.00 37 1011.5
20240617172200 71 332 6.0 14.0 0.00 0.00 0.00 37 1011.5
20240617172101 71 11 5.0 14.0 0.00 0.00 0.00 37 1011.5
20240617171959 71 309 6.0 14.0 0.00 0.00 0.00 37 1011.4
20240617171924 71 312 6.0 14.0 0.00 0.00 0.00 37 1011.4
20240617171856 71 327 6.0 14.0 0.00 0.00 0.00 37 1011.4
20240617171754 71 290 6.0 14.0 0.00 0.00 0.00 37 1011.4
20240617171655 71 318 6.0 15.0 0.00 0.00 0.00 37 1011.4
20240617171555 71 4 6.0 15.0 0.00 0.00 0.00 37 1011.4
20240617171452 71 332 6.0 15.0 0.00 0.00 0.00 37 1011.4
20240617171424 71 332 6.0 15.0 0.00 0.00 0.00 38 1011.4
20240617171346 71 328 7.0 15.0 0.00 0.00 0.00 38 1011.4
20240617171246 71 301 7.0 17.0 0.00 0.00 0.00 37 1011.5
20240617171146 71 336 7.0 17.0 0.00 0.00 0.00 37 1011.5
20240617171049 71 328 6.0 17.0 0.00 0.00 0.00 36 1011.5
20240617170945 71 325 6.0 17.0 0.00 0.00 0.00 36 1011.5
20240617170924 71 40 6.0 17.0 0.00 0.00 0.00 36 1011.5
20240617170845 71 318 5.0 17.0 0.00 0.00 0.00 37 1011.5
20240617170741 71 345 5.0 17.0 0.00 0.00 0.00 37 1011.5
20240617170650 71 74 5.0 17.0 0.00 0.00 0.00 37 1011.5
20240617170640 71 298 5.0 17.0 0.00 0.00 0.00 37 1011.5
20240617170543 71 321 5.0 17.0 0.00 0.00 0.00 37 1011.5
20240617170533 71 290 5.0 17.0 0.00 0.00 0.00 37 1011.5
20240617170336 71 20 4.0 15.0 0.00 0.00 0.00 37 1011.6
20240617170236 71 323 4.0 15.0 0.00 0.00 0.00 38 1011.6
20240617170136 71 8 4.0 15.0 0.00 0.00 0.00 38 1011.5
20240617170036 71 290 4.0 14.0 0.00 0.00 0.00 38 1011.7
20240617165933 71 340 5.0 14.0 0.00 0.00 0.00 38 1011.7
20240617165924 70 340 5.0 14.0 0.00 0.00 0.00 38 1011.7
20240617165832 70 8 5.0 14.0 0.00 0.00 0.00 38 1011.7
20240617165732 70 315 5.0 14.0 0.00 0.00 0.00 37 1011.7
20240617165632 71 307 4.0 14.0 0.00 0.00 0.00 38 1011.8
20240617165532 70 358 5.0 14.0 0.00 0.00 0.00 38 1011.7
20240617165432 70 5 5.0 14.0 0.00 0.00 0.00 39 1011.6
20240617165422 70 11 5.0 12.0 0.00 0.00 0.00 39 1011.6
20240617165332 70 338 5.0 12.0 0.00 0.00 0.00 39 1011.6
20240617165232 70 318 5.0 12.0 0.00 0.00 0.00 39 1011.6
20240617165130 70 323 5.0 14.0 0.00 0.00 0.00 39 1011.6
20240617165029 70 31 5.0 14.0 0.00 0.00 0.00 39 1011.6
20240617164928 70 340 6.0 14.0 0.00 0.00 0.00 39 1011.6
20240617164917 70 350 6.0 14.0 0.00 0.00 0.00 39 1011.6
20240617164828 70 323 6.0 14.0 0.00 0.00 0.00 39 1011.6
20240617164726 69 328 6.0 16.0 0.00 0.00 0.00 39 1011.6
20240617164626 69 330 6.0 16.0 0.00 0.00 0.00 40 1011.6
20240617164526 69 293 7.0 16.0 0.00 0.00 0.00 39 1011.6
20240617164426 69 323 7.0 16.0 0.00 0.00 0.00 39 1011.5
20240617164406 69 243 7.0 16.0 0.00 0.00 0.00 39 1011.5
20240617164326 69 300 7.0 16.0 0.00 0.00 0.00 39 1011.5
20240617164225 69 304 7.0 16.0 0.00 0.00 0.00 40 1011.6
20240617164120 69 287 7.0 16.0 0.00 0.00 0.00 39 1011.6
20240617164021 69 25 7.0 16.0 0.00 0.00 0.00 39 1011.6
20240617163920 69 314 7.0 16.0 0.00 0.00 0.00 39 1011.6
20240617163905 69 349 7.0 16.0 0.00 0.00 0.00 39 1011.6
20240617163820 69 304 7.0 15.0 0.00 0.00 0.00 40 1011.6
20240617163611 69 323 6.0 15.0 0.00 0.00 0.00 40 1011.6
20240617163512 69 322 6.0 15.0 0.00 0.00 0.00 40 1011.6
20240617163413 69 319 6.0 15.0 0.00 0.00 0.00 40 1011.6
20240617163404 69 309 6.0 15.0 0.00 0.00 0.00 40 1011.6
20240617163311 69 283 6.0 15.0 0.00 0.00 0.00 40 1011.6
20240617163211 69 326 5.0 15.0 0.00 0.00 0.00 40 1011.5
20240617163108 69 302 5.0 15.0 0.00 0.00 0.00 40 1011.5
20240617163006 69 316 5.0 12.0 0.00 0.00 0.00 41 1011.5
20240617162908 69 307 5.0 12.0 0.00 0.00 0.00 40 1011.5
20240617162806 69 311 5.0 12.0 0.00 0.00 0.00 42 1011.5
20240617162706 69 304 5.0 15.0 0.00 0.00 0.00 41 1011.5
20240617162606 69 276 6.0 15.0 0.00 0.00 0.00 41 1011.5
20240617162506 69 301 6.0 15.0 0.00 0.00 0.00 41 1011.5
20240617162409 69 302 6.0 15.0 0.00 0.00 0.00 41 1011.5
20240617162306 69 339 6.0 15.0 0.00 0.00 0.00 41 1011.5
20240617162206 69 340 6.0 15.0 0.00 0.00 0.00 41 1011.5
20240617162106 69 340 6.0 15.0 0.00 0.00 0.00 41 1011.5
20240617162006 69 309 6.0 15.0 0.00 0.00 0.00 41 1011.5
20240617161907 69 339 6.0 15.0 0.00 0.00 0.00 41 1011.5
20240617161806 69 340 5.0 15.0 0.00 0.00 0.00 40 1011.6
20240617161706 69 304 6.0 14.0 0.00 0.00 0.00 41 1011.5
20240617161606 69 328 6.0 14.0 0.00 0.00 0.00 40 1011.5
20240617161505 69 294 5.0 14.0 0.00 0.00 0.00 40 1011.5
20240617161406 69 312 5.0 14.0 0.00 0.00 0.00 40 1011.5
20240617161400 69 304 5.0 14.0 0.00 0.00 0.00 40 1011.5
20240617161300 69 330 5.0 14.0 0.00 0.00 0.00 40 1011.4
20240617161200 69 311 5.0 14.0 0.00 0.00 0.00 40 1011.4
20240617161100 69 322 5.0 14.0 0.00 0.00 0.00 40 1011.3
20240617160958 69 296 5.0 14.0 0.00 0.00 0.00 41 1011.4
20240617160903 69 319 5.0 12.0 0.00 0.00 0.00 41 1011.4
20240617160852 69 294 5.0 12.0 0.00 0.00 0.00 41 1011.4
20240617160753 69 338 5.0 12.0 0.00 0.00 0.00 41 1011.3
20240617160653 69 296 4.0 12.0 0.00 0.00 0.00 41 1011.4
20240617160553 69 325 4.0 12.0 0.00 0.00 0.00 41 1011.4
20240617160451 69 321 4.0 12.0 0.00 0.00 0.00 41 1011.4
20240617160405 69 311 4.0 12.0 0.00 0.00 0.00 41 1011.4
20240617160348 69 290 4.0 12.0 0.00 0.00 0.00 41 1011.4
20240617160252 69 300 4.0 12.0 0.00 0.00 0.00 41 1011.4
20240617160146 68 30 4.0 11.0 0.00 0.00 0.00 41 1011.4
20240617160046 68 285 4.0 11.0 0.00 0.00 0.00 41 1011.4
20240617155945 68 333 5.0 12.0 0.00 0.00 0.00 42 1011.4
20240617155903 68 345 5.0 12.0 0.00 0.00 0.00 42 1011.4
20240617155839 68 318 5.0 12.0 0.00 0.00 0.00 42 1011.4
20240617155739 68 18 5.0 12.0 0.00 0.00 0.00 42 1011.4
20240617155643 68 330 5.0 12.0 0.00 0.00 0.00 42 1011.4
20240617155624 68 352 5.0 12.0 0.00 0.00 0.00 42 1011.4
20240617155541 68 316 5.0 12.0 0.00 0.00 0.00 41 1011.3
20240617155512 68 44 5.0 12.0 0.00 0.00 0.00 41 1011.4
20240617155337 68 355 6.0 12.0 0.00 0.00 0.00 42 1011.4
20240617155243 68 358 6.0 12.0 0.00 0.00 0.00 41 1011.4
20240617155138 68 304 6.0 12.0 0.00 0.00 0.00 41 1011.4
20240617155038 68 302 5.0 12.0 0.00 0.00 0.00 41 1011.4
20240617154946 68 323 5.0 12.0 0.00 0.00 0.00 41 1011.3
20240617154904 68 347 5.0 12.0 0.00 0.00 0.00 41 1011.3
20240617154838 68 353 5.0 12.0 0.00 0.00 0.00 41 1011.3
20240617154738 68 311 5.0 12.0 0.00 0.00 0.00 41 1011.3
20240617154646 68 325 6.0 12.0 0.00 0.00 0.00 41 1011.3
20240617154626 68 319 5.0 13.0 0.00 0.00 0.00 41 1011.4
20240617154535 68 11 5.0 13.0 0.00 0.00 0.00 41 1011.4
20240617154512 68 290 5.0 13.0 0.00 0.00 0.00 41 1011.4
20240617154336 68 314 5.0 13.0 0.00 0.00 0.00 41 1011.4
20240617154235 68 297 5.0 13.0 0.00 0.00 0.00 41 1011.4
20240617154132 68 29 5.0 14.0 0.00 0.00 0.00 42 1011.4
20240617154032 68 338 5.0 14.0 0.00 0.00 0.00 41 1011.4
20240617153932 68 300 5.0 14.0 0.00 0.00 0.00 41 1011.4
20240617153904 68 294 5.0 14.0 0.00 0.00 0.00 41 1011.4
20240617153832 68 301 5.0 14.0 0.00 0.00 0.00 41 1011.4
20240617153731 68 308 4.0 14.0 0.00 0.00 0.00 40 1011.4
20240617153628 68 342 4.0 14.0 0.00 0.00 0.00 41 1011.3
20240617153526 68 318 4.0 14.0 0.00 0.00 0.00 40 1011.4
20240617153426 68 340 4.0 14.0 0.00 0.00 0.00 40 1011.4
20240617153403 68 335 3.0 14.0 0.00 0.00 0.00 40 1011.3
20240617153326 68 298 3.0 14.0 0.00 0.00 0.00 40 1011.3
20240617153225 68 274 3.0 14.0 0.00 0.00 0.00 40 1011.3
20240617153118 68 305 3.0 9.0 0.00 0.00 0.00 40 1011.4
20240617153018 68 323 3.0 9.0 0.00 0.00 0.00 40 1011.3
20240617152918 68 297 4.0 13.0 0.00 0.00 0.00 40 1011.5
20240617152857 68 305 4.0 13.0 0.00 0.00 0.00 40 1011.4
20240617152818 68 329 4.0 13.0 0.00 0.00 0.00 39 1011.4
20240617152717 68 322 5.0 13.0 0.00 0.00 0.00 39 1011.4
20240617152612 68 36 5.0 13.0 0.00 0.00 0.00 40 1011.4
20240617152512 68 358 5.0 13.0 0.00 0.00 0.00 39 1011.4
20240617152413 67 18 5.0 13.0 0.00 0.00 0.00 39 1011.4
20240617152351 67 328 5.0 13.0 0.00 0.00 0.00 39 1011.4
20240617152312 67 350 5.0 13.0 0.00 0.00 0.00 39 1011.4
20240617152211 67 329 6.0 13.0 0.00 0.00 0.00 39 1011.4
20240617152108 67 357 6.0 13.0 0.00 0.00 0.00 39 1011.3
20240617152008 67 5 6.0 13.0 0.00 0.00 0.00 39 1011.3
20240617151908 67 314 6.0 11.0 0.00 0.00 0.00 39 1011.3
20240617151849 67 336 6.0 11.0 0.00 0.00 0.00 39 1011.3
20240617151808 67 333 6.0 11.0 0.00 0.00 0.00 39 1011.3
20240617151708 67 293 5.0 11.0 0.00 0.00 0.00 39 1011.3
20240617151608 67 219 6.0 11.0 0.00 0.00 0.00 40 1011.3
20240617151506 67 294 6.0 11.0 0.00 0.00 0.00 39 1011.3
20240617151406 67 41 6.0 11.0 0.00 0.00 0.00 39 1011.3
20240617151347 67 73 6.0 11.0 0.00 0.00 0.00 39 1011.3
20240617151306 67 286 6.0 11.0 0.00 0.00 0.00 39 1011.3
20240617151206 67 297 6.0 11.0 0.00 0.00 0.00 39 1011.3
20240617151106 67 343 6.0 11.0 0.00 0.00 0.00 39 1011.3
20240617151006 67 341 5.0 11.0 0.00 0.00 0.00 39 1011.2
20240617150906 67 307 5.0 11.0 0.00 0.00 0.00 40 1011.2
20240617150848 67 311 6.0 11.0 0.00 0.00 0.00 40 1011.2
20240617150806 67 298 6.0 11.0 0.00 0.00 0.00 40 1011.2
20240617150706 67 326 6.0 11.0 0.00 0.00 0.00 39 1011.2
20240617150606 67 343 5.0 12.0 0.00 0.00 0.00 39 1011.1
20240617150505 67 347 5.0 12.0 0.00 0.00 0.00 39 1011.1
20240617150400 67 301 5.0 12.0 0.00 0.00 0.00 40 1011.2
20240617150348 67 314 5.0 12.0 0.00 0.00 0.00 40 1011.2
20240617150300 67 289 5.0 12.0 0.00 0.00 0.00 40 1011.1
20240617150200 67 309 5.0 12.0 0.00 0.00 0.00 40 1011.2
20240617150100 67 347 5.0 12.0 0.00 0.00 0.00 40 1011.1
20240617145958 67 84 5.0 14.0 0.00 0.00 0.00 40 1011.1
20240617145849 67 314 5.0 14.0 0.00 0.00 0.00 40 1011.1
20240617145752 67 319 5.0 14.0 0.00 0.00 0.00 41 1011.1
20240617145652 67 337 6.0 25.0 0.00 0.00 0.00 41 1011.1
20240617145552 67 337 6.0 25.0 0.00 0.00 0.00 41 1011.1
20240617145452 67 13 6.0 25.0 0.00 0.00 0.00 41 1011.1
20240617145355 67 287 6.0 25.0 0.00 0.00 0.00 41 1011.1
20240617145347 67 298 6.0 25.0 0.00 0.00 0.00 41 1011.1
20240617145253 67 300 6.0 25.0 0.00 0.00 0.00 41 1011.1
20240617145151 67 319 6.0 25.0 0.00 0.00 0.00 41 1011.0
20240617145052 67 318 6.0 25.0 0.00 0.00 0.00 41 1011.1
20240617144952 66 300 6.0 25.0 0.00 0.00 0.00 41 1011.1
20240617144854 66 321 6.0 25.0 0.00 0.00 0.00 41 1011.1
20240617144846 66 264 6.0 25.0 0.00 0.00 0.00 41 1011.1
20240617144750 66 323 5.0 25.0 0.00 0.00 0.00 41 1011.0
20240617144649 67 340 5.0 17.0 0.00 0.00 0.00 41 1011.1
20240617144549 67 337 5.0 17.0 0.00 0.00 0.00 41 1011.0
20240617144448 67 283 5.0 14.0 0.00 0.00 0.00 42 1011.1
20240617144351 67 323 5.0 14.0 0.00 0.00 0.00 42 1011.1
20240617144246 67 332 5.0 14.0 0.00 0.00 0.00 41 1011.1
20240617144146 66 18 5.0 14.0 0.00 0.00 0.00 41 1011.0
20240617144046 66 307 5.0 14.0 0.00 0.00 0.00 42 1011.0
20240617143946 66 351 5.0 14.0 0.00 0.00 0.00 42 1011.0
20240617143849 66 316 6.0 14.0 0.00 0.00 0.00 42 1010.9
20240617143746 66 311 6.0 14.0 0.00 0.00 0.00 42 1011.0
20240617143645 66 309 6.0 14.0 0.00 0.00 0.00 41 1010.9
20240617143540 66 333 5.0 14.0 0.00 0.00 0.00 42 1011.0
20240617143440 66 8 5.0 14.0 0.00 0.00 0.00 42 1010.9
20240617143347 66 5 6.0 14.0 0.00 0.00 0.00 42 1010.9
20240617143340 66 20 6.0 14.0 0.00 0.00 0.00 42 1010.9
20240617143238 66 353 5.0 14.0 0.00 0.00 0.00 42 1010.8
20240617143132 66 354 5.0 13.0 0.00 0.00 0.00 42 1010.8
20240617143107 66 54 6.0 12.0 0.00 0.00 0.00 43 1010.8
20240617143032 66 314 5.0 13.0 0.00 0.00 0.00 42 1010.8
20240617142951 66 325 5.0 12.0 0.00 0.00 0.00 43 1010.8
20240617142832 66 347 6.0 12.0 0.00 0.00 0.00 42 1010.8
20240617142731 66 307 6.0 16.0 0.00 0.00 0.00 42 1010.8
20240617142632 66 333 6.0 16.0 0.00 0.00 0.00 43 1010.8
20240617142531 66 8 6.0 16.0 0.00 0.00 0.00 42 1010.7
20240617142432 66 314 5.0 16.0 0.00 0.00 0.00 42 1010.8
20240617142341 66 297 5.0 16.0 0.00 0.00 0.00 42 1010.7
20240617142332 66 309 5.0 16.0 0.00 0.00 0.00 43 1010.7
20240617142231 66 300 5.0 16.0 0.00 0.00 0.00 43 1010.7
20240617142132 66 315 5.0 16.0 0.00 0.00 0.00 42 1010.7
20240617142030 66 328 5.0 16.0 0.00 0.00 0.00 42 1010.7
20240617141930 66 328 5.0 16.0 0.00 0.00 0.00 42 1010.7
20240617141841 66 323 4.0 16.0 0.00 0.00 0.00 43 1010.7
20240617141830 66 350 4.0 16.0 0.00 0.00 0.00 43 1010.7
20240617141728 66 330 4.0 15.0 0.00 0.00 0.00 43 1010.6
20240617141628 66 318 4.0 11.0 0.00 0.00 0.00 44 1010.5
20240617141526 65 274 4.0 11.0 0.00 0.00 0.00 44 1010.6
20240617141426 65 297 4.0 11.0 0.00 0.00 0.00 43 1010.6
20240617141343 65 307 3.0 11.0 0.00 0.00 0.00 44 1010.6
20240617141327 65 288 3.0 11.0 0.00 0.00 0.00 44 1010.6
20240617141226 65 326 3.0 11.0 0.00 0.00 0.00 45 1010.6
20240617141125 65 321 3.0 11.0 0.00 0.00 0.00 45 1010.6
20240617141026 65 340 3.0 11.0 0.00 0.00 0.00 45 1010.5
20240617140922 65 312 2.0 11.0 0.00 0.00 0.00 45 1010.6
20240617140840 65 311 2.0 11.0 0.00 0.00 0.00 45 1010.5
20240617140822 65 30 2.0 11.0 0.00 0.00 0.00 45 1010.5
20240617140722 65 321 2.0 7.0 0.00 0.00 0.00 46 1010.6
20240617140622 65 321 2.0 7.0 0.00 0.00 0.00 46 1010.6
20240617140519 65 19 2.0 6.0 0.00 0.00 0.00 46 1010.6
20240617140412 65 305 1.0 6.0 0.00 0.00 0.00 47 1010.6
20240617140337 65 307 1.0 5.0 0.00 0.00 0.00 47 1010.5
20240617140312 65 292 1.0 4.0 0.00 0.00 0.00 47 1010.5
20240617140212 65 289 1.0 4.0 0.00 0.00 0.00 48 1010.5
20240617140111 65 1 1.0 4.0 0.00 0.00 0.00 48 1010.5
20240617140012 65 13 1.0 4.0 0.00 0.00 0.00 47 1010.5
20240617135908 65 326 1.0 4.0 0.00 0.00 0.00 47 1010.5
20240617135835 65 356 1.0 4.0 0.00 0.00 0.00 47 1010.5
20240617135806 65 349 1.0 4.0 0.00 0.00 0.00 47 1010.5
20240617135706 65 314 0.0 4.0 0.00 0.00 0.00 47 1010.5
20240617135604 65 354 1.0 4.0 0.00 0.00 0.00 48 1010.5
20240617135503 64 309 1.0 3.0 0.00 0.00 0.00 48 1010.5
20240617135358 64 330 1.0 3.0 0.00 0.00 0.00 48 1010.4
20240617135335 64 309 1.0 3.0 0.00 0.00 0.00 49 1010.4
20240617135257 64 304 1.0 4.0 0.00 0.00 0.00 49 1010.4
20240617135158 64 302 1.0 4.0 0.00 0.00 0.00 49 1010.4
20240617135056 64 321 1.0 4.0 0.00 0.00 0.00 49 1010.3
20240617134955 64 311 1.0 5.0 0.00 0.00 0.00 50 1010.4
20240617134835 64 328 1.0 5.0 0.00 0.00 0.00 50 1010.4
20240617134753 64 330 1.0 5.0 0.00 0.00 0.00 50 1010.4
20240617134652 64 305 1.0 5.0 0.00 0.00 0.00 50 1010.4
20240617134552 64 309 1.0 5.0 0.00 0.00 0.00 50 1010.3
20240617134449 64 359 1.0 5.0 0.00 0.00 0.00 51 1010.3
20240617134346 63 339 1.0 5.0 0.00 0.00 0.00 50 1010.4
20240617134335 63 323 1.0 5.0 0.00 0.00 0.00 50 1010.4
20240617134244 63 300 1.0 5.0 0.00 0.00 0.00 50 1010.4
20240617134144 63 307 1.0 5.0 0.00 0.00 0.00 51 1010.3
20240617134044 63 343 1.0 5.0 0.00 0.00 0.00 52 1010.3
20240617133943 63 322 0.0 5.0 0.00 0.00 0.00 52 1010.4
20240617133840 63 352 0.0 5.0 0.00 0.00 0.00 53 1010.3
20240617133738 63 332 0.0 3.0 0.00 0.00 0.00 53 1010.3
20240617133638 63 289 0.0 4.0 0.00 0.00 0.00 53 1010.3
20240617133538 62 307 0.0 4.0 0.00 0.00 0.00 54 1010.2
20240617133437 62 5 0.0 4.0 0.00 0.00 0.00 54 1010.2
20240617133340 62 355 0.0 4.0 0.00 0.00 0.00 54 1010.3
20240617133236 62 350 0.0 4.0 0.00 0.00 0.00 54 1010.2
20240617133135 62 347 1.0 4.0 0.00 0.00 0.00 54 1010.2
20240617133034 62 336 1.0 4.0 0.00 0.00 0.00 55 1010.3
20240617132932 62 4 1.0 4.0 0.00 0.00 0.00 54 1010.3
20240617132836 62 8 1.0 4.0 0.00 0.00 0.00 55 1010.3
20240617132828 61 309 1.0 4.0 0.00 0.00 0.00 55 1010.3
20240617132726 61 311 0.0 4.0 0.00 0.00 0.00 56 1010.2
20240617132629 61 351 0.0 4.0 0.00 0.00 0.00 56 1010.2
20240617132526 61 333 1.0 4.0 0.00 0.00 0.00 56 1010.2
20240617132426 61 0 1.0 4.0 0.00 0.00 0.00 57 1010.2
20240617132336 61 323 1.0 3.0 0.00 0.00 0.00 57 1010.1
20240617132322 61 330 1.0 3.0 0.00 0.00 0.00 57 1010.1
20240617132220 61 330 1.0 3.0 0.00 0.00 0.00 57 1010.2
20240617132120 60 293 1.0 3.0 0.00 0.00 0.00 57 1010.1
20240617132020 60 354 1.0 3.0 0.00 0.00 0.00 58 1010.1
20240617131919 60 312 1.0 3.0 0.00 0.00 0.00 59 1010.1
20240617131837 60 300 0.0 3.0 0.00 0.00 0.00 59 1010.1
20240617131818 60 330 0.0 3.0 0.00 0.00 0.00 59 1010.1
20240617131717 60 307 0.0 3.0 0.00 0.00 0.00 60 1010.1
20240617131617 60 307 0.0 3.0 0.00 0.00 0.00 61 1010.0
20240617131516 60 290 0.0 3.0 0.00 0.00 0.00 61 1010.0
20240617131413 59 307 0.0 3.0 0.00 0.00 0.00 62 1010.0
20240617131308 59 314 0.0 2.0 0.00 0.00 0.00 62 1010.0
20240617131208 59 310 0.0 2.0 0.00 0.00 0.00 63 1010.0
20240617131108 59 338 0.0 2.0 0.00 0.00 0.00 63 1009.9
20240617131007 59 316 0.0 2.0 0.00 0.00 0.00 64 1010.0
20240617130908 59 11 0.0 2.0 0.00 0.00 0.00 65 1009.9
20240617130834 58 12 0.0 2.0 0.00 0.00 0.00 65 1009.9
20240617130803 58 13 0.0 2.0 0.00 0.00 0.00 65 1009.9
20240617130702 58 11 0.0 1.0 0.00 0.00 0.00 66 1009.9
20240617130602 58 248 0.0 1.0 0.00 0.00 0.00 66 1009.9
20240617130502 58 311 0.0 1.0 0.00 0.00 0.00 67 1009.9
20240617130401 58 310 0.0 1.0 0.00 0.00 0.00 67 1009.9
20240617130332 58 311 0.0 1.0 0.00 0.00 0.00 67 1009.9
20240617130256 58 307 0.0 1.0 0.00 0.00 0.00 68 1009.9
20240617130156 58 338 0.0 1.0 0.00 0.00 0.00 68 1009.8
20240617130056 57 308 0.0 1.0 0.00 0.00 0.00 69 1009.8
20240617125956 57 308 0.0 1.0 0.00 0.00 0.00 69 1009.8
20240617125829 57 307 0.0 1.0 0.00 0.00 0.00 69 1009.8
20240617125751 57 307 0.0 1.0 0.00 0.00 0.00 70 1009.8
20240617125650 57 304 0.0 1.0 0.00 0.00 0.00 70 1009.7
20240617125550 57 304 0.0 1.0 0.00 0.00 0.00 70 1009.7
20240617125450 57 354 0.0 0.0 0.00 0.00 0.00 70 1009.7
20240617125329 57 357 0.0 0.0 0.00 0.00 0.00 71 1009.7
20240617125248 57 358 0.0 0.0 0.00 0.00 0.00 71 1009.7
20240617125148 57 358 0.0 0.0 0.00 0.00 0.00 71 1009.7
20240617125047 57 358 0.0 0.0 0.00 0.00 0.00 71 1009.7
20240617124946 57 358 0.0 0.0 0.00 0.00 0.00 71 1009.7
20240617124838 57 358 0.0 0.0 0.00 0.00 0.00 71 1009.7
20240617124740 57 358 0.0 0.0 0.00 0.00 0.00 70 1009.6
20240617124640 57 359 0.0 0.0 0.00 0.00 0.00 70 1009.7
20240617124538 57 358 0.0 0.0 0.00 0.00 0.00 70 1009.6
20240617124437 57 358 0.0 1.0 0.00 0.00 0.00 70 1009.6
20240617124323 57 358 0.0 1.0 0.00 0.00 0.00 70 1009.6
20240617124234 57 359 0.0 1.0 0.00 0.00 0.00 70 1009.7
20240617124137 57 358 0.0 1.0 0.00 0.00 0.00 70 1009.6
20240617124034 57 359 0.0 1.0 0.00 0.00 0.00 69 1009.6
20240617123933 57 358 0.0 1.0 0.00 0.00 0.00 70 1009.6
20240617123821 57 359 0.0 1.0 0.00 0.00 0.00 70 1009.6
20240617123726 57 358 0.0 1.0 0.00 0.00 0.00 70 1009.6
20240617123629 57 359 0.0 1.0 0.00 0.00 0.00 70 1009.6
20240617123553 57 316 0.0 1.0 0.00 0.00 0.00 70 1009.5
20240617123526 57 1 0.0 1.0 0.00 0.00 0.00 70 1009.6
20240617123441 57 316 0.0 1.0 0.00 0.00 0.00 70 1009.6
20240617123431 57 316 0.0 1.0 0.00 0.00 0.00 70 1009.5
20240617123222 57 314 0.0 1.0 0.00 0.00 0.00 70 1009.5
20240617123122 57 316 0.0 1.0 0.00 0.00 0.00 70 1009.5
20240617123022 57 316 0.0 1.0 0.00 0.00 0.00 70 1009.5
20240617122920 57 316 0.0 1.0 0.00 0.00 0.00 70 1009.4
20240617122820 57 228 0.0 0.0 0.00 0.00 0.00 70 1009.4
20240617122714 57 228 0.0 0.0 0.00 0.00 0.00 70 1009.3
20240617122612 57 226 0.0 0.0 0.00 0.00 0.00 71 1009.4
20240617122511 57 226 0.0 0.0 0.00 0.00 0.00 70 1009.3
20240617122412 57 226 0.0 1.0 0.00 0.00 0.00 70 1009.3
20240617122314 57 226 0.0 1.0 0.00 0.00 0.00 70 1009.3
20240617122212 57 226 0.0 1.0 0.00 0.00 0.00 70 1009.3
20240617122109 57 226 0.0 1.0 0.00 0.00 0.00 69 1009.3
20240617122010 57 228 0.0 1.0 0.00 0.00 0.00 69 1009.2
20240617121908 57 228 0.0 1.0 0.00 0.00 0.00 69 1009.2
20240617121809 57 226 0.0 1.0 0.00 0.00 0.00 69 1009.2
20240617121659 57 226 0.0 1.0 0.00 0.00 0.00 69 1009.1
20240617121559 57 226 0.0 1.0 0.00 0.00 0.00 69 1009.1
20240617121528 57 228 0.0 1.0 0.00 0.00 0.00 69 1009.1
20240617121500 57 228 0.0 1.0 0.00 0.00 0.00 69 1009.1
20240617121417 57 228 0.0 1.0 0.00 0.00 0.00 69 1009.1
20240617121303 57 227 0.0 1.0 0.00 0.00 0.00 69 1009.1
20240617121156 58 228 0.0 1.0 0.00 0.00 0.00 69 1009.1
20240617121054 58 228 0.0 1.0 0.00 0.00 0.00 69 1009.0
20240617121026 58 229 0.0 1.0 0.00 0.00 0.00 69 1009.0
20240617120953 58 229 0.0 1.0 0.00 0.00 0.00 69 1009.0
20240617120916 58 229 0.0 1.0 0.00 0.00 0.00 69 1009.0
20240617120753 58 229 0.0 1.0 0.00 0.00 0.00 69 1009.1
20240617120652 58 229 0.0 1.0 0.00 0.00 0.00 68 1009.0
20240617120552 58 229 0.0 1.0 0.00 0.00 0.00 68 1009.0
20240617120450 58 241 0.0 0.0 0.00 0.00 0.00 68 1009.0
20240617120350 58 235 0.0 1.0 0.00 0.00 0.00 68 1009.0
20240617120306 58 235 0.0 1.0 0.00 0.00 0.00 68 1009.0
20240617120248 58 235 0.0 1.0 0.00 0.00 0.00 68 1009.0
20240617120146 58 236 0.0 2.0 0.00 0.00 0.00 68 1009.0
20240617120042 58 236 0.0 2.0 0.00 0.00 0.00 68 1009.1
20240617115943 58 236 0.0 2.0 0.00 0.00 0.00 68 1009.0
20240617115920 58 236 0.0 2.0 0.00 0.00 0.00 68 1009.0
20240617115803 58 236 0.0 2.0 0.00 0.00 0.00 68 1009.0
20240617115742 58 236 0.0 2.0 0.00 0.00 0.00 68 1009.0
20240617115638 58 237 0.0 2.0 0.00 0.00 0.00 68 1009.0
20240617115536 58 6 0.0 2.0 0.00 0.00 0.00 68 1009.1
20240617115444 58 9 0.0 2.0 0.00 0.00 0.00 68 1009.0
20240617115337 58 248 0.0 2.0 0.00 0.00 0.00 68 1008.9
20240617115302 58 248 0.0 2.0 0.00 0.00 0.00 68 1009.0
20240617115235 58 233 0.0 2.0 0.00 0.00 0.00 68 1009.0
20240617115134 58 236 0.0 0.0 0.00 0.00 0.00 68 1009.0
20240617115033 58 236 0.0 0.0 0.00 0.00 0.00 67 1009.0
20240617115025 58 236 0.0 0.0 0.00 0.00 0.00 67 1008.9
20240617114934 58 238 0.0 0.0 0.00 0.00 0.00 67 1009.0
20240617114912 58 237 0.0 0.0 0.00 0.00 0.00 67 1009.0
20240617114729 58 236 0.0 0.0 0.00 0.00 0.00 67 1008.9
20240617114629 58 236 0.0 0.0 0.00 0.00 0.00 67 1008.9
20240617114528 58 236 0.0 0.0 0.00 0.00 0.00 67 1009.0
20240617114428 58 236 0.0 0.0 0.00 0.00 0.00 67 1008.9
20240617114328 58 238 0.0 0.0 0.00 0.00 0.00 67 1008.9
20240617114301 58 238 0.0 1.0 0.00 0.00 0.00 67 1008.8
20240617114228 58 238 0.0 1.0 0.00 0.00 0.00 67 1008.8
20240617114126 58 259 0.0 1.0 0.00 0.00 0.00 67 1008.8
20240617114024 58 259 0.0 1.0 0.00 0.00 0.00 67 1008.9
20240617113922 58 259 0.0 1.0 0.00 0.00 0.00 67 1008.9
20240617113802 58 229 0.0 1.0 0.00 0.00 0.00 67 1008.9
20240617113720 58 210 0.0 1.0 0.00 0.00 0.00 67 1008.9
20240617113624 58 260 0.0 1.0 0.00 0.00 0.00 67 1008.9
20240617113518 58 260 0.0 1.0 0.00 0.00 0.00 67 1008.9
20240617113418 58 260 0.0 1.0 0.00 0.00 0.00 67 1008.9
20240617113315 58 260 0.0 1.0 0.00 0.00 0.00 68 1008.9
20240617113301 58 229 0.0 1.0 0.00 0.00 0.00 68 1008.9
20240617113216 58 229 0.0 0.0 0.00 0.00 0.00 68 1008.9
20240617113113 58 229 0.0 0.0 0.00 0.00 0.00 68 1008.9
20240617113024 58 229 0.0 0.0 0.00 0.00 0.00 67 1008.8
20240617113012 58 229 0.0 0.0 0.00 0.00 0.00 68 1008.8
20240617112921 58 229 0.0 0.0 0.00 0.00 0.00 67 1008.8
20240617112911 58 229 0.0 0.0 0.00 0.00 0.00 67 1008.8
20240617112708 58 229 0.0 1.0 0.00 0.00 0.00 67 1008.8
20240617112608 58 229 0.0 1.0 0.00 0.00 0.00 67 1008.8
20240617112506 58 231 0.0 5.0 0.00 0.00 0.00 67 1008.8
20240617112402 58 231 0.0 5.0 0.00 0.00 0.00 67 1008.8
20240617112306 58 231 0.0 5.0 0.00 0.00 0.00 67 1008.8
20240617112202 58 231 0.0 5.0 0.00 0.00 0.00 67 1008.8
20240617112101 58 231 0.0 5.0 0.00 0.00 0.00 67 1008.7
20240617112002 58 231 0.0 5.0 0.00 0.00 0.00 67 1008.8
20240617111901 58 231 0.0 5.0 0.00 0.00 0.00 67 1008.7
20240617111802 58 232 0.0 5.0 0.00 0.00 0.00 67 1008.7
20240617111702 58 252 0.0 5.0 0.00 0.00 0.00 67 1008.7
20240617111602 58 253 0.0 5.0 0.00 0.00 0.00 67 1008.7
20240617111501 58 136 0.0 0.0 0.00 0.00 0.00 67 1008.7
20240617111402 58 135 0.0 0.0 0.00 0.00 0.00 67 1008.6
20240617111303 58 136 0.0 0.0 0.00 0.00 0.00 67 1008.7
20240617111202 58 135 0.0 0.0 0.00 0.00 0.00 67 1008.7
20240617111102 58 132 0.0 0.0 0.00 0.00 0.00 67 1008.7
20240617111002 58 133 0.0 0.0 0.00 0.00 0.00 67 1008.7
20240617110901 58 132 0.0 0.0 0.00 0.00 0.00 67 1008.6
20240617110803 58 132 0.0 0.0 0.00 0.00 0.00 67 1008.7
20240617110658 58 127 0.0 0.0 0.00 0.00 0.00 67 1008.6
20240617110558 58 127 0.0 0.0 0.00 0.00 0.00 67 1008.6
20240617110458 58 127 0.0 0.0 0.00 0.00 0.00 67 1008.7
20240617110358 58 129 0.0 0.0 0.00 0.00 0.00 67 1008.6
20240617110258 59 127 0.0 0.0 0.00 0.00 0.00 67 1008.6
20240617110158 59 127 0.0 0.0 0.00 0.00 0.00 67 1008.6
20240617110058 59 127 0.0 0.0 0.00 0.00 0.00 67 1008.6
20240617110029 59 245 0.0 0.0 0.00 0.00 0.00 67 1008.6
20240617105958 59 127 0.0 0.0 0.00 0.00 0.00 67 1008.6
20240617105912 59 200 0.0 0.0 0.00 0.00 0.00 67 1008.6
20240617105758 59 245 0.0 0.0 0.00 0.00 0.00 67 1008.6
20240617105658 59 245 0.0 0.0 0.00 0.00 0.00 67 1008.6
20240617105557 59 245 0.0 0.0 0.00 0.00 0.00 66 1008.5
20240617105458 59 245 0.0 0.0 0.00 0.00 0.00 66 1008.5
20240617105358 59 245 0.0 0.0 0.00 0.00 0.00 66 1008.6
20240617105258 59 245 0.0 0.0 0.00 0.00 0.00 66 1008.5
20240617105158 59 245 0.0 0.0 0.00 0.00 0.00 65 1008.6
20240617105058 60 245 0.0 0.0 0.00 0.00 0.00 66 1008.5
20240617104957 60 245 0.0 0.0 0.00 0.00 0.00 66 1008.5
20240617104858 60 245 0.0 0.0 0.00 0.00 0.00 65 1008.5
20240617104754 60 245 0.0 0.0 0.00 0.00 0.00 65 1008.5
20240617104654 60 245 0.0 0.0 0.00 0.00 0.00 65 1008.5
20240617104553 60 245 0.0 0.0 0.00 0.00 0.00 65 1008.5
20240617104454 60 245 0.0 0.0 0.00 0.00 0.00 65 1008.5
20240617104353 60 245 0.0 4.0 0.00 0.00 0.00 65 1008.5
20240617104254 60 269 0.0 4.0 0.00 0.00 0.00 65 1008.5
20240617104153 60 268 0.0 4.0 0.00 0.00 0.00 64 1008.4
20240617104054 60 269 0.0 4.0 0.00 0.00 0.00 64 1008.4
20240617103954 60 269 0.0 4.0 0.00 0.00 0.00 64 1008.5
20240617103854 60 269 0.0 4.0 0.00 0.00 0.00 64 1008.5
20240617103754 60 269 0.0 4.0 0.00 0.00 0.00 64 1008.5
20240617103654 60 268 1.0 6.0 0.00 0.00 0.00 64 1008.5
20240617103552 60 268 1.0 6.0 0.00 0.00 0.00 64 1008.5
20240617103452 60 248 1.0 6.0 0.00 0.00 0.00 64 1008.4
20240617103350 60 248 0.0 6.0 0.00 0.00 0.00 64 1008.4
20240617103257 60 240 0.0 6.0 0.00 0.00 0.00 64 1008.5
20240617103251 60 250 0.0 6.0 0.00 0.00 0.00 64 1008.5
20240617103150 60 242 0.0 6.0 0.00 0.00 0.00 64 1008.5
20240617103048 60 210 0.0 6.0 0.00 0.00 0.00 64 1008.4
20240617102945 60 259 0.0 6.0 0.00 0.00 0.00 64 1008.4
20240617102846 60 242 0.0 6.0 0.00 0.00 0.00 64 1008.5
20240617102753 60 262 0.0 6.0 0.00 0.00 0.00 64 1008.5
20240617102744 60 293 0.0 4.0 0.00 0.00 0.00 64 1008.5
20240617102639 60 267 0.0 4.0 0.00 0.00 0.00 64 1008.6
20240617102539 60 248 0.0 4.0 0.00 0.00 0.00 64 1008.6
20240617102440 60 239 0.0 4.0 0.00 0.00 0.00 64 1008.5
20240617102340 60 283 0.0 3.0 0.00 0.00 0.00 64 1008.5
20240617102239 60 304 0.0 3.0 0.00 0.00 0.00 64 1008.4
20240617102140 61 304 0.0 3.0 0.00 0.00 0.00 64 1008.5
20240617102040 61 304 0.0 5.0 0.00 0.00 0.00 64 1008.5
20240617101940 61 304 0.0 5.0 0.00 0.00 0.00 64 1008.5
20240617101835 61 304 0.0 5.0 0.00 0.00 0.00 64 1008.5
20240617101736 61 259 1.0 5.0 0.00 0.00 0.00 64 1008.5
20240617101635 61 222 0.0 7.0 0.00 0.00 0.00 64 1008.4
20240617101536 61 265 0.0 7.0 0.00 0.00 0.00 64 1008.4
20240617101436 61 266 0.0 7.0 0.00 0.00 0.00 64 1008.4
20240617101336 61 239 0.0 7.0 0.00 0.00 0.00 64 1008.4
20240617101249 61 305 0.0 7.0 0.00 0.00 0.00 64 1008.4
20240617101236 61 304 0.0 7.0 0.00 0.00 0.00 64 1008.4
20240617101136 61 290 0.0 7.0 0.00 0.00 0.00 64 1008.3
20240617101035 61 239 0.0 7.0 0.00 0.00 0.00 64 1008.3
20240617100936 61 239 0.0 7.0 0.00 0.00 0.00 64 1008.3
20240617100837 61 205 0.0 7.0 0.00 0.00 0.00 64 1008.3
20240617100747 61 273 0.0 7.0 0.00 0.00 0.00 64 1008.3
20240617100733 61 242 0.0 6.0 0.00 0.00 0.00 64 1008.3
20240617100631 61 240 0.0 1.0 0.00 0.00 0.00 64 1008.3
20240617100531 61 218 0.0 1.0 0.00 0.00 0.00 64 1008.3
20240617100507 61 224 0.0 3.0 0.00 0.00 0.00 64 1008.3
20240617100432 61 218 0.0 1.0 0.00 0.00 0.00 64 1008.3
20240617100356 61 224 0.0 3.0 0.00 0.00 0.00 64 1008.3
20240617100229 61 223 0.0 3.0 0.00 0.00 0.00 64 1008.3
20240617100128 61 283 0.0 3.0 0.00 0.00 0.00 65 1008.3
20240617100026 61 282 0.0 3.0 0.00 0.00 0.00 64 1008.3
20240617095924 61 283 0.0 3.0 0.00 0.00 0.00 64 1008.2
20240617095824 61 263 0.0 3.0 0.00 0.00 0.00 64 1008.2
20240617095721 61 214 0.0 3.0 0.00 0.00 0.00 64 1008.2
20240617095622 61 228 0.0 3.0 0.00 0.00 0.00 64 1008.2
20240617095520 61 228 0.0 3.0 0.00 0.00 0.00 64 1008.2
20240617095420 61 228 0.0 3.0 0.00 0.00 0.00 64 1008.2
20240617095317 61 238 0.0 3.0 0.00 0.00 0.00 64 1008.2
20240617095242 61 203 0.0 3.0 0.00 0.00 0.00 64 1008.2
20240617095215 61 235 0.0 2.0 0.00 0.00 0.00 64 1008.2
20240617095113 61 217 0.0 2.0 0.00 0.00 0.00 65 1008.2
20240617095014 62 260 0.0 2.0 0.00 0.00 0.00 64 1008.2
20240617094912 62 226 0.0 3.0 0.00 0.00 0.00 64 1008.2
20240617094810 62 225 0.0 4.0 0.00 0.00 0.00 64 1008.2
20240617094740 62 225 1.0 4.0 0.00 0.00 0.00 64 1008.2
20240617094709 62 225 1.0 4.0 0.00 0.00 0.00 64 1008.2
20240617094609 62 231 1.0 5.0 0.00 0.00 0.00 64 1008.2
20240617094508 62 243 1.0 5.0 0.00 0.00 0.00 64 1008.2
20240617094406 62 255 1.0 5.0 0.00 0.00 0.00 64 1008.2
20240617094304 62 211 1.0 5.0 0.00 0.00 0.00 64 1008.2
20240617094238 62 233 1.0 5.0 0.00 0.00 0.00 64 1008.2
20240617094204 62 219 1.0 5.0 0.00 0.00 0.00 64 1008.2
20240617094101 62 221 1.0 5.0 0.00 0.00 0.00 64 1008.2
20240617093959 62 214 1.0 5.0 0.00 0.00 0.00 64 1008.2
20240617093858 62 249 1.0 5.0 0.00 0.00 0.00 64 1008.2
20240617093757 62 233 1.0 5.0 0.00 0.00 0.00 64 1008.2
20240617093735 62 274 1.0 5.0 0.00 0.00 0.00 64 1008.2
20240617093657 62 226 1.0 5.0 0.00 0.00 0.00 64 1008.3
20240617093554 62 236 1.0 6.0 0.00 0.00 0.00 64 1008.2
20240617093455 62 218 1.0 6.0 0.00 0.00 0.00 64 1008.3
20240617093352 62 283 1.0 6.0 0.00 0.00 0.00 64 1008.3
20240617093252 62 226 1.0 6.0 0.00 0.00 0.00 64 1008.3
20240617093236 62 219 1.0 6.0 0.00 0.00 0.00 64 1008.3
20240617093151 62 210 1.0 6.0 0.00 0.00 0.00 64 1008.2
20240617093050 62 253 1.0 6.0 0.00 0.00 0.00 64 1008.2
20240617092950 62 243 1.0 6.0 0.00 0.00 0.00 64 1008.2
20240617092848 62 247 1.0 6.0 0.00 0.00 0.00 64 1008.2
20240617092748 62 221 1.0 6.0 0.00 0.00 0.00 64 1008.2
20240617092735 62 184 1.0 6.0 0.00 0.00 0.00 64 1008.2
20240617092645 62 212 1.0 6.0 0.00 0.00 0.00 64 1008.2
20240617092542 62 224 1.0 4.0 0.00 0.00 0.00 64 1008.3
20240617092441 62 226 1.0 4.0 0.00 0.00 0.00 64 1008.2
20240617092340 62 226 1.0 4.0 0.00 0.00 0.00 63 1008.3
20240617092244 62 246 1.0 4.0 0.00 0.00 0.00 63 1008.3
20240617092236 62 248 1.0 4.0 0.00 0.00 0.00 63 1008.3
20240617092139 62 229 1.0 4.0 0.00 0.00 0.00 63 1008.3
20240617092036 62 266 1.0 5.0 0.00 0.00 0.00 63 1008.4
20240617091935 62 217 1.0 5.0 0.00 0.00 0.00 63 1008.3
20240617091836 62 226 1.0 5.0 0.00 0.00 0.00 63 1008.3
20240617091738 62 236 1.0 5.0 0.00 0.00 0.00 63 1008.3
20240617091633 62 232 2.0 5.0 0.00 0.00 0.00 63 1008.3
20240617091529 62 231 2.0 5.0 0.00 0.00 0.00 63 1008.3
20240617091427 62 194 2.0 6.0 0.00 0.00 0.00 63 1008.3
20240617091328 62 263 2.0 6.0 0.00 0.00 0.00 63 1008.3
20240617091235 62 236 2.0 6.0 0.00 0.00 0.00 63 1008.3
20240617091228 62 233 2.0 6.0 0.00 0.00 0.00 63 1008.3
20240617091126 63 195 2.0 6.0 0.00 0.00 0.00 63 1008.2
20240617091022 63 239 2.0 6.0 0.00 0.00 0.00 63 1008.3
20240617090922 63 212 2.0 6.0 0.00 0.00 0.00 63 1008.3
20240617090822 63 231 3.0 6.0 0.00 0.00 0.00 62 1008.3
20240617090733 63 229 2.0 6.0 0.00 0.00 0.00 62 1008.3
20240617090722 63 235 2.0 6.0 0.00 0.00 0.00 62 1008.3
20240617090621 63 211 2.0 6.0 0.00 0.00 0.00 62 1008.2
20240617090518 63 236 2.0 6.0 0.00 0.00 0.00 62 1008.2
20240617090417 63 185 2.0 6.0 0.00 0.00 0.00 62 1008.2
20240617090317 63 238 2.0 6.0 0.00 0.00 0.00 62 1008.2
20240617090244 63 194 2.0 6.0 0.00 0.00 0.00 62 1008.2
20240617090216 63 240 2.0 6.0 0.00 0.00 0.00 62 1008.2
20240617090113 63 224 1.0 6.0 0.00 0.00 0.00 62 1008.2
20240617090006 63 239 1.0 4.0 0.00 0.00 0.00 62 1008.2
20240617085906 63 225 1.0 4.0 0.00 0.00 0.00 62 1008.2
20240617085805 63 201 1.0 4.0 0.00 0.00 0.00 61 1008.2
20240617085733 63 211 1.0 4.0 0.00 0.00 0.00 61 1008.2
20240617085706 63 222 1.0 4.0 0.00 0.00 0.00 61 1008.2
20240617085608 63 203 1.0 4.0 0.00 0.00 0.00 61 1008.2
20240617085459 63 208 1.0 4.0 0.00 0.00 0.00 61 1008.3
20240617085400 63 207 1.0 4.0 0.00 0.00 0.00 61 1008.3
20240617085259 63 213 1.0 4.0 0.00 0.00 0.00 61 1008.3
20240617085244 63 242 1.0 4.0 0.00 0.00 0.00 61 1008.3
20240617085200 63 205 1.0 4.0 0.00 0.00 0.00 61 1008.2
20240617085058 63 219 1.0 4.0 0.00 0.00 0.00 61 1008.2
20240617084952 63 235 1.0 4.0 0.00 0.00 0.00 61 1008.2
20240617084851 64 205 1.0 4.0 0.00 0.00 0.00 61 1008.1
20240617084752 64 233 2.0 4.0 0.00 0.00 0.00 61 1008.1
20240617084732 64 239 2.0 4.0 0.00 0.00 0.00 61 1008.1
20240617084652 64 236 1.0 4.0 0.00 0.00 0.00 61 1008.1
20240617084551 64 214 1.0 4.0 0.00 0.00 0.00 60 1008.2
20240617084448 64 187 1.0 4.0 0.00 0.00 0.00 60 1008.1
20240617084345 64 221 1.0 4.0 0.00 0.00 0.00 60 1008.2
20240617084250 64 224 1.0 4.0 0.00 0.00 0.00 60 1008.1
20240617084230 64 193 1.0 4.0 0.00 0.00 0.00 60 1008.1
20240617084146 64 224 1.0 4.0 0.00 0.00 0.00 60 1008.2
20240617084043 64 174 1.0 4.0 0.00 0.00 0.00 60 1008.2
20240617083939 64 233 1.0 4.0 0.00 0.00 0.00 60 1008.1
20240617083838 64 165 1.0 6.0 0.00 0.00 0.00 59 1008.1
20240617083740 64 215 1.0 6.0 0.00 0.00 0.00 59 1008.1
20240617083730 64 204 1.0 6.0 0.00 0.00 0.00 59 1008.1
20240617083637 64 226 1.0 7.0 0.00 0.00 0.00 59 1008.1
20240617083536 64 155 2.0 7.0 0.00 0.00 0.00 59 1008.1
20240617083435 64 200 2.0 7.0 0.00 0.00 0.00 59 1008.1
20240617083334 64 179 2.0 7.0 0.00 0.00 0.00 59 1008.1
20240617083235 64 231 2.0 7.0 0.00 0.00 0.00 59 1008.1
20240617083132 64 250 2.0 7.0 0.00 0.00 0.00 59 1008.1
20240617083031 64 225 2.0 7.0 0.00 0.00 0.00 59 1008.1
20240617082927 64 233 2.0 7.0 0.00 0.00 0.00 59 1008.0
20240617082826 64 138 2.0 7.0 0.00 0.00 0.00 59 1008.0
20240617082732 64 231 2.0 7.0 0.00 0.00 0.00 58 1008.1
20240617082725 64 225 2.0 7.0 0.00 0.00 0.00 58 1008.1
20240617082626 64 236 1.0 7.0 0.00 0.00 0.00 58 1008.0
20240617082525 64 243 1.0 7.0 0.00 0.00 0.00 58 1008.0
20240617082420 65 218 1.0 5.0 0.00 0.00 0.00 58 1008.1
20240617082320 65 229 1.0 3.0 0.00 0.00 0.00 58 1008.2
20240617082220 65 215 1.0 5.0 0.00 0.00 0.00 58 1008.1
20240617082120 65 238 1.0 5.0 0.00 0.00 0.00 58 1008.1
20240617082019 65 211 1.0 5.0 0.00 0.00 0.00 58 1008.1
20240617081916 65 250 1.0 5.0 0.00 0.00 0.00 58 1008.1
20240617081816 65 212 1.0 5.0 0.00 0.00 0.00 58 1008.1
20240617081731 65 219 1.0 5.0 0.00 0.00 0.00 57 1008.1
20240617081716 65 232 1.0 5.0 0.00 0.00 0.00 57 1008.1
20240617081615 65 239 1.0 5.0 0.00 0.00 0.00 57 1008.1
20240617081512 65 253 1.0 5.0 0.00 0.00 0.00 57 1008.1
20240617081457 65 225 1.0 5.0 0.00 0.00 0.00 57 1008.1
20240617081407 65 232 1.0 5.0 0.00 0.00 0.00 57 1008.1
20240617081342 65 229 1.0 5.0 0.00 0.00 0.00 57 1008.1
20240617081208 65 210 1.0 5.0 0.00 0.00 0.00 57 1008.1
20240617081108 65 224 1.0 5.0 0.00 0.00 0.00 57 1008.1
20240617081007 65 243 1.0 4.0 0.00 0.00 0.00 57 1008.1
20240617080902 65 231 1.0 5.0 0.00 0.00 0.00 57 1008.1
20240617080802 65 245 1.0 5.0 0.00 0.00 0.00 57 1008.1
20240617080727 65 238 1.0 6.0 0.00 0.00 0.00 57 1008.1
20240617080702 65 229 1.0 6.0 0.00 0.00 0.00 57 1008.1
20240617080603 65 228 1.0 6.0 0.00 0.00 0.00 56 1008.1
20240617080501 65 246 1.0 6.0 0.00 0.00 0.00 56 1008.0
20240617080356 65 238 1.0 6.0 0.00 0.00 0.00 56 1008.1
20240617080256 65 225 1.0 6.0 0.00 0.00 0.00 56 1008.1
20240617080225 65 231 1.0 6.0 0.00 0.00 0.00 56 1008.1
20240617080156 65 235 1.0 6.0 0.00 0.00 0.00 56 1008.1
20240617080056 65 240 1.0 6.0 0.00 0.00 0.00 56 1008.1
20240617075955 65 235 1.0 6.0 0.00 0.00 0.00 56 1008.1
20240617075944 65 246 0.0 6.0 0.00 0.00 0.00 56 1008.1
20240617075852 65 248 1.0 6.0 0.00 0.00 0.00 56 1008.1
20240617075836 65 239 0.0 6.0 0.00 0.00 0.00 56 1008.1
20240617075650 65 238 1.0 6.0 0.00 0.00 0.00 56 1008.1
20240617075550 65 229 1.0 6.0 0.00 0.00 0.00 56 1008.0
20240617075449 65 233 0.0 6.0 0.00 0.00 0.00 56 1008.0
20240617075349 65 222 0.0 6.0 0.00 0.00 0.00 56 1008.0
20240617075250 65 240 1.0 4.0 0.00 0.00 0.00 56 1008.0
20240617075240 65 186 1.0 4.0 0.00 0.00 0.00 56 1008.0
20240617075146 65 186 1.0 4.0 0.00 0.00 0.00 56 1008.0
20240617075046 65 229 1.0 4.0 0.00 0.00 0.00 56 1008.0
20240617074949 65 250 1.0 4.0 0.00 0.00 0.00 55 1007.9
20240617074944 65 243 1.0 4.0 0.00 0.00 0.00 55 1008.0
20240617074845 65 197 1.0 4.0 0.00 0.00 0.00 55 1007.9
20240617074837 65 277 1.0 4.0 0.00 0.00 0.00 55 1007.9
20240617074639 65 221 1.0 4.0 0.00 0.00 0.00 55 1007.9
20240617074540 66 238 1.0 4.0 0.00 0.00 0.00 55 1007.9
20240617074438 66 233 1.0 4.0 0.00 0.00 0.00 55 1008.0
20240617074336 65 167 0.0 4.0 0.00 0.00 0.00 55 1008.0
20240617074234 65 198 0.0 3.0 0.00 0.00 0.00 55 1007.9
20240617074223 65 211 0.0 2.0 0.00 0.00 0.00 55 1007.9
20240617074134 65 172 0.0 2.0 0.00 0.00 0.00 55 1008.0
20240617074034 66 219 0.0 2.0 0.00 0.00 0.00 55 1008.0
20240617073931 66 162 0.0 4.0 0.00 0.00 0.00 55 1008.0
20240617073828 66 240 0.0 4.0 0.00 0.00 0.00 55 1008.0
20240617073727 66 162 0.0 4.0 0.00 0.00 0.00 54 1008.0
20240617073626 66 185 1.0 7.0 0.00 0.00 0.00 54 1007.9
20240617073527 66 201 1.0 7.0 0.00 0.00 0.00 54 1007.9
20240617073426 66 142 1.0 7.0 0.00 0.00 0.00 54 1008.0
20240617073319 66 215 1.0 7.0 0.00 0.00 0.00 54 1007.9
20240617073226 66 239 1.0 7.0 0.00 0.00 0.00 54 1007.9
20240617073220 66 238 1.0 7.0 0.00 0.00 0.00 54 1007.9
20240617073120 66 233 1.0 7.0 0.00 0.00 0.00 54 1008.0
20240617073019 66 221 1.0 7.0 0.00 0.00 0.00 54 1007.9
20240617072919 66 267 1.0 7.0 0.00 0.00 0.00 54 1007.9
20240617072816 66 256 1.0 7.0 0.00 0.00 0.00 53 1007.9
20240617072721 66 253 1.0 7.0 0.00 0.00 0.00 53 1007.9
20240617072714 66 257 1.0 7.0 0.00 0.00 0.00 53 1007.9
20240617072614 66 271 1.0 5.0 0.00 0.00 0.00 53 1007.9
20240617072520 66 229 1.0 5.0 0.00 0.00 0.00 53 1007.9
20240617072413 66 214 1.0 5.0 0.00 0.00 0.00 53 1007.9
20240617072308 66 233 1.0 5.0 0.00 0.00 0.00 53 1007.9
20240617072208 66 224 1.0 5.0 0.00 0.00 0.00 53 1008.0
20240617072108 66 224 1.0 5.0 0.00 0.00 0.00 53 1008.0
20240617072008 66 228 0.0 3.0 0.00 0.00 0.00 53 1008.0
20240617071906 66 236 0.0 3.0 0.00 0.00 0.00 53 1007.9
20240617071805 66 233 0.0 3.0 0.00 0.00 0.00 53 1008.0
20240617071722 66 232 0.0 3.0 0.00 0.00 0.00 53 1008.0
20240617071705 66 233 0.0 3.0 0.00 0.00 0.00 53 1008.0
20240617071604 66 222 0.0 3.0 0.00 0.00 0.00 53 1008.0
20240617071504 66 235 0.0 3.0 0.00 0.00 0.00 53 1008.0
20240617071403 66 210 0.0 3.0 0.00 0.00 0.00 53 1008.1
20240617071304 66 238 0.0 6.0 0.00 0.00 0.00 52 1008.1
20240617071213 66 243 0.0 6.0 0.00 0.00 0.00 52 1008.1
20240617071204 66 238 0.0 6.0 0.00 0.00 0.00 52 1008.1
20240617071103 66 240 0.0 6.0 0.00 0.00 0.00 52 1008.1
20240617071003 66 229 0.0 6.0 0.00 0.00 0.00 52 1008.1
20240617070901 66 259 0.0 6.0 0.00 0.00 0.00 52 1008.1
20240617070800 66 228 1.0 6.0 0.00 0.00 0.00 52 1008.1
20240617070720 66 229 1.0 6.0 0.00 0.00 0.00 52 1008.1
20240617070658 66 229 1.0 6.0 0.00 0.00 0.00 52 1008.1
20240617070601 66 238 1.0 6.0 0.00 0.00 0.00 52 1008.1
20240617070458 66 240 1.0 6.0 0.00 0.00 0.00 52 1008.1
20240617070424 66 224 1.0 4.0 0.00 0.00 0.00 52 1008.1
20240617070356 66 253 1.0 6.0 0.00 0.00 0.00 52 1008.2
20240617070316 66 305 1.0 4.0 0.00 0.00 0.00 52 1008.2
20240617070154 66 250 1.0 4.0 0.00 0.00 0.00 52 1008.1
20240617070054 66 240 1.0 4.0 0.00 0.00 0.00 52 1008.2
20240617065954 66 240 1.0 3.0 0.00 0.00 0.00 52 1008.2
20240617065854 66 221 1.0 3.0 0.00 0.00 0.00 52 1008.2
20240617065753 66 248 0.0 3.0 0.00 0.00 0.00 52 1008.2
20240617065703 66 249 1.0 3.0 0.00 0.00 0.00 52 1008.2
20240617065653 66 248 1.0 3.0 0.00 0.00 0.00 52 1008.2
20240617065548 66 229 0.0 3.0 0.00 0.00 0.00 52 1008.2
20240617065448 66 232 0.0 3.0 0.00 0.00 0.00 52 1008.2
20240617065348 66 246 0.0 3.0 0.00 0.00 0.00 52 1008.2
20240617065248 66 229 0.0 3.0 0.00 0.00 0.00 52 1008.2
20240617065202 66 250 1.0 3.0 0.00 0.00 0.00 53 1008.2
20240617065148 66 226 1.0 3.0 0.00 0.00 0.00 53 1008.2
20240617065048 66 225 1.0 5.0 0.00 0.00 0.00 53 1008.2
20240617064947 66 217 1.0 5.0 0.00 0.00 0.00 53 1008.2
20240617064848 66 219 1.0 5.0 0.00 0.00 0.00 53 1008.2
20240617064747 66 238 1.0 5.0 0.00 0.00 0.00 53 1008.2
20240617064714 66 242 0.0 5.0 0.00 0.00 0.00 53 1008.2
20240617064648 66 240 0.0 5.0 0.00 0.00 0.00 53 1008.2
20240617064548 66 243 0.0 5.0 0.00 0.00 0.00 53 1008.2
20240617064449 66 240 0.0 5.0 0.00 0.00 0.00 54 1008.2
20240617064348 66 222 0.0 5.0 0.00 0.00 0.00 54 1008.2
20240617064248 66 237 0.0 5.0 0.00 0.00 0.00 54 1008.2
20240617064202 66 195 0.0 5.0 0.00 0.00 0.00 54 1008.2
20240617064149 66 204 0.0 5.0 0.00 0.00 0.00 54 1008.2
20240617064048 66 232 0.0 1.0 0.00 0.00 0.00 54 1008.2
20240617063948 66 232 0.0 1.0 0.00 0.00 0.00 54 1008.2
20240617063849 66 232 0.0 1.0 0.00 0.00 0.00 54 1008.2
20240617063748 66 231 0.0 1.0 0.00 0.00 0.00 54 1008.2
20240617063701 66 214 0.0 1.0 0.00 0.00 0.00 54 1008.2
20240617063644 66 229 0.0 1.0 0.00 0.00 0.00 54 1008.2
20240617063544 66 235 0.0 1.0 0.00 0.00 0.00 54 1008.2
20240617063444 66 235 0.0 1.0 0.00 0.00 0.00 54 1008.2
20240617063344 66 228 0.0 0.0 0.00 0.00 0.00 54 1008.2
20240617063244 66 228 0.0 0.0 0.00 0.00 0.00 54 1008.2
20240617063144 66 228 0.0 0.0 0.00 0.00 0.00 54 1008.2
20240617063044 66 228 0.0 0.0 0.00 0.00 0.00 53 1008.2
20240617062944 67 228 0.0 1.0 0.00 0.00 0.00 53 1008.2
20240617062844 67 228 0.0 1.0 0.00 0.00 0.00 53 1008.1
20240617062745 67 228 0.0 1.0 0.00 0.00 0.00 53 1008.1
20240617062644 67 228 0.0 1.0 0.00 0.00 0.00 53 1008.1
20240617062544 67 228 0.0 1.0 0.00 0.00 0.00 53 1008.1
20240617062444 67 228 0.0 1.0 0.00 0.00 0.00 53 1008.1
20240617062407 67 144 0.0 1.0 0.00 0.00 0.00 52 1007.9
20240617062344 67 228 0.0 1.0 0.00 0.00 0.00 53 1008.1
20240617062313 67 238 0.0 1.0 0.00 0.00 0.00 53 1008.0
20240617062258 67 238 0.0 1.0 0.00 0.00 0.00 53 1008.0
20240617062145 67 238 0.0 1.0 0.00 0.00 0.00 53 1008.0
20240617062044 67 238 0.0 1.0 0.00 0.00 0.00 53 1008.0
20240617062034 67 191 0.0 1.0 0.00 0.00 0.00 53 1007.9
20240617061845 67 222 0.0 1.0 0.00 0.00 0.00 53 1007.9
20240617061812 67 187 0.0 1.0 0.00 0.00 0.00 53 1007.9
20240617061640 67 142 0.0 1.0 0.00 0.00 0.00 52 1007.9
20240617061540 67 224 0.0 0.0 0.00 0.00 0.00 52 1007.9
20240617061440 67 224 0.0 0.0 0.00 0.00 0.00 52 1007.9
20240617061340 67 224 0.0 0.0 0.00 0.00 0.00 51 1007.9
20240617061239 67 224 0.0 0.0 0.00 0.00 0.00 51 1007.9
20240617061139 67 224 0.0 0.0 0.00 0.00 0.00 51 1007.9
20240617061038 68 224 0.0 1.0 0.00 0.00 0.00 51 1007.9
20240617060938 68 224 0.0 1.0 0.00 0.00 0.00 51 1007.9
20240617060837 68 224 0.0 1.0 0.00 0.00 0.00 51 1007.9
20240617060738 68 224 0.0 1.0 0.00 0.00 0.00 51 1007.8
20240617060700 68 224 0.0 1.0 0.00 0.00 0.00 51 1007.8
20240617060638 68 224 0.0 4.0 0.00 0.00 0.00 51 1007.8
20240617060534 68 224 0.0 4.0 0.00 0.00 0.00 51 1007.8
20240617060434 68 225 0.0 4.0 0.00 0.00 0.00 50 1007.8
20240617060334 68 225 0.0 4.0 0.00 0.00 0.00 50 1007.7
20240617060234 68 224 1.0 4.0 0.00 0.00 0.00 50 1007.7
20240617060201 68 224 1.0 4.0 0.00 0.00 0.00 50 1007.7
20240617060135 68 225 1.0 4.0 0.00 0.00 0.00 50 1007.7
20240617060034 68 232 1.0 7.0 0.00 0.00 0.00 50 1007.7
20240617055934 68 232 1.0 7.0 0.00 0.00 0.00 50 1007.7
20240617055834 68 224 2.0 7.0 0.00 0.00 0.00 50 1007.6
20240617055734 68 264 2.0 7.0 0.00 0.00 0.00 50 1007.6
20240617055700 68 264 2.0 7.0 0.00 0.00 0.00 50 1007.6
20240617055634 68 243 2.0 7.0 0.00 0.00 0.00 50 1007.6
20240617055534 68 200 2.0 7.0 0.00 0.00 0.00 50 1007.6
20240617055434 68 228 2.0 7.0 0.00 0.00 0.00 50 1007.6
20240617055335 69 277 2.0 7.0 0.00 0.00 0.00 50 1007.5
20240617055234 69 219 2.0 7.0 0.00 0.00 0.00 50 1007.5
20240617055200 69 236 2.0 7.0 0.00 0.00 0.00 50 1007.5
20240617055134 69 235 2.0 7.0 0.00 0.00 0.00 50 1007.5
20240617055035 69 210 2.0 7.0 0.00 0.00 0.00 50 1007.5
20240617054934 69 238 2.0 7.0 0.00 0.00 0.00 50 1007.5
20240617054834 69 221 2.0 7.0 0.00 0.00 0.00 50 1007.5
20240617054734 69 233 2.0 7.0 0.00 0.00 0.00 50 1007.5
20240617054700 69 267 2.0 7.0 0.00 0.00 0.00 50 1007.5
20240617054634 69 250 2.0 7.0 0.00 0.00 0.00 50 1007.5
20240617054532 69 260 1.0 7.0 0.00 0.00 0.00 50 1007.5
20240617054432 69 250 1.0 7.0 0.00 0.00 0.00 50 1007.5
20240617054332 69 224 1.0 7.0 0.00 0.00 0.00 50 1007.5
20240617054232 69 224 1.0 7.0 0.00 0.00 0.00 49 1007.5
20240617054158 69 228 1.0 7.0 0.00 0.00 0.00 49 1007.4
20240617054132 69 262 1.0 7.0 0.00 0.00 0.00 49 1007.4
20240617054033 69 259 1.0 7.0 0.00 0.00 0.00 49 1007.5
20240617053932 69 250 1.0 4.0 0.00 0.00 0.00 49 1007.4
20240617053832 69 229 1.0 4.0 0.00 0.00 0.00 49 1007.4
20240617053733 69 228 1.0 6.0 0.00 0.00 0.00 49 1007.4
20240617053659 69 198 1.0 6.0 0.00 0.00 0.00 49 1007.4
20240617053633 69 277 1.0 7.0 0.00 0.00 0.00 49 1007.4
20240617053533 69 238 1.0 7.0 0.00 0.00 0.00 49 1007.4
20240617053433 69 195 1.0 7.0 0.00 0.00 0.00 49 1007.5
20240617053331 69 236 1.0 7.0 0.00 0.00 0.00 49 1007.4
20240617053232 69 225 2.0 7.0 0.00 0.00 0.00 49 1007.4
20240617053157 69 229 1.0 7.0 0.00 0.00 0.00 49 1007.4
20240617053132 69 238 1.0 7.0 0.00 0.00 0.00 49 1007.4
20240617053032 69 232 2.0 7.0 0.00 0.00 0.00 48 1007.4
20240617052934 69 232 2.0 7.0 0.00 0.00 0.00 48 1007.4
20240617052833 69 271 2.0 7.0 0.00 0.00 0.00 48 1007.4
20240617052728 69 267 2.0 7.0 0.00 0.00 0.00 48 1007.4
20240617052656 69 232 1.0 7.0 0.00 0.00 0.00 48 1007.4
20240617052629 69 275 1.0 7.0 0.00 0.00 0.00 48 1007.4
20240617052528 69 233 1.0 7.0 0.00 0.00 0.00 48 1007.4
20240617052428 69 273 1.0 7.0 0.00 0.00 0.00 48 1007.4
20240617052328 69 240 1.0 7.0 0.00 0.00 0.00 48 1007.4
20240617052228 69 201 1.0 7.0 0.00 0.00 0.00 48 1007.3
20240617052153 69 248 1.0 6.0 0.00 0.00 0.00 48 1007.4
20240617052128 69 250 1.0 6.0 0.00 0.00 0.00 48 1007.4
20240617052028 69 229 1.0 6.0 0.00 0.00 0.00 48 1007.4
20240617051928 69 255 1.0 8.0 0.00 0.00 0.00 48 1007.3
20240617051917 69 197 1.0 8.0 0.00 0.00 0.00 48 1007.3
20240617051828 69 260 1.0 8.0 0.00 0.00 0.00 48 1007.3
20240617051804 69 252 1.0 8.0 0.00 0.00 0.00 48 1007.3
20240617051628 69 200 1.0 8.0 0.00 0.00 0.00 48 1007.3
20240617051528 69 242 2.0 8.0 0.00 0.00 0.00 48 1007.3
20240617051428 70 238 2.0 8.0 0.00 0.00 0.00 48 1007.3
20240617051329 70 141 2.0 8.0 0.00 0.00 0.00 48 1007.3
20240617051229 70 217 2.0 8.0 0.00 0.00 0.00 47 1007.3
20240617051153 70 204 2.0 8.0 0.00 0.00 0.00 47 1007.3
20240617051129 70 266 2.0 8.0 0.00 0.00 0.00 47 1007.3
20240617051028 70 219 2.0 8.0 0.00 0.00 0.00 47 1007.3
20240617050928 70 248 2.0 8.0 0.00 0.00 0.00 47 1007.3
20240617050919 70 225 3.0 8.0 0.00 0.00 0.00 47 1007.3
20240617050824 70 270 2.0 8.0 0.00 0.00 0.00 47 1007.3
20240617050805 70 246 2.0 8.0 0.00 0.00 0.00 47 1007.3
20240617050631 70 277 3.0 10.0 0.00 0.00 0.00 47 1007.2
20240617050624 70 225 3.0 8.0 0.00 0.00 0.00 47 1007.3
20240617050533 70 243 3.0 10.0 0.00 0.00 0.00 47 1007.3
20240617050524 70 296 3.0 10.0 0.00 0.00 0.00 47 1007.3
20240617050324 70 261 3.0 10.0 0.00 0.00 0.00 47 1007.3
20240617050304 70 262 3.0 10.0 0.00 0.00 0.00 47 1007.2
20240617050125 70 290 3.0 10.0 0.00 0.00 0.00 47 1007.2
20240617050024 70 267 3.0 10.0 0.00 0.00 0.00 47 1007.2
20240617045924 70 243 3.0 10.0 0.00 0.00 0.00 47 1007.2
20240617045824 70 242 3.0 10.0 0.00 0.00 0.00 47 1007.2
20240617045724 70 233 2.0 11.0 0.00 0.00 0.00 47 1007.2
20240617045654 70 238 2.0 11.0 0.00 0.00 0.00 47 1007.2
20240617045624 70 243 2.0 11.0 0.00 0.00 0.00 47 1007.2
20240617045525 70 248 2.0 11.0 0.00 0.00 0.00 46 1007.2
20240617045424 70 253 2.0 11.0 0.00 0.00 0.00 46 1007.2
20240617045415 70 255 3.0 11.0 0.00 0.00 0.00 46 1007.2
20240617045324 70 203 2.0 11.0 0.00 0.00 0.00 46 1007.1
20240617045307 70 248 3.0 11.0 0.00 0.00 0.00 46 1007.2
20240617045128 70 290 3.0 11.0 0.00 0.00 0.00 46 1007.2
20240617045027 70 290 3.0 11.0 0.00 0.00 0.00 46 1007.1
20240617044946 70 298 3.0 11.0 0.00 0.00 0.00 46 1007.1
20240617044821 71 245 3.0 11.0 0.00 0.00 0.00 46 1007.1
20240617044720 71 272 3.0 11.0 0.00 0.00 0.00 46 1007.1
20240617044657 71 269 3.0 11.0 0.00 0.00 0.00 46 1007.1
20240617044620 71 253 3.0 11.0 0.00 0.00 0.00 46 1007.1
20240617044424 71 278 2.0 7.0 0.00 0.00 0.00 46 1007.1
20240617044420 71 293 3.0 11.0 0.00 0.00 0.00 46 1007.0
20240617044321 71 264 2.0 10.0 0.00 0.00 0.00 46 1007.0
20240617044301 71 224 2.0 7.0 0.00 0.00 0.00 46 1007.1
20240617044121 71 267 2.0 7.0 0.00 0.00 0.00 46 1007.1
20240617044021 71 231 2.0 8.0 0.00 0.00 0.00 45 1007.1
20240617043920 71 259 2.0 8.0 0.00 0.00 0.00 45 1007.0
20240617043820 71 270 3.0 11.0 0.00 0.00 0.00 45 1007.0
20240617043721 71 287 3.0 13.0 0.00 0.00 0.00 45 1007.0
20240617043650 71 246 3.0 13.0 0.00 0.00 0.00 45 1007.0
20240617043621 71 233 3.0 13.0 0.00 0.00 0.00 45 1007.0
20240617043521 71 236 3.0 13.0 0.00 0.00 0.00 45 1007.0
20240617043420 71 280 3.0 13.0 0.00 0.00 0.00 45 1007.0
20240617043320 71 228 3.0 13.0 0.00 0.00 0.00 45 1007.0
20240617043221 71 207 3.0 13.0 0.00 0.00 0.00 45 1006.9
20240617043150 71 271 4.0 13.0 0.00 0.00 0.00 45 1006.9
20240617043120 71 256 4.0 13.0 0.00 0.00 0.00 45 1006.9
20240617043016 71 235 4.0 13.0 0.00 0.00 0.00 45 1006.9
20240617042916 71 242 4.0 13.0 0.00 0.00 0.00 45 1006.9
20240617042816 71 195 4.0 13.0 0.00 0.00 0.00 45 1006.9
20240617042717 72 228 4.0 13.0 0.00 0.00 0.00 44 1006.9
20240617042650 72 250 4.0 13.0 0.00 0.00 0.00 44 1006.9
20240617042616 72 245 4.0 13.0 0.00 0.00 0.00 44 1006.9
20240617042516 72 264 4.0 13.0 0.00 0.00 0.00 44 1006.9
20240617042417 72 222 4.0 13.0 0.00 0.00 0.00 44 1006.9
20240617042316 72 211 4.0 13.0 0.00 0.00 0.00 44 1006.8
20240617042216 72 238 4.0 13.0 0.00 0.00 0.00 44 1006.8
20240617042150 72 228 3.0 13.0 0.00 0.00 0.00 44 1006.8
20240617042117 72 232 3.0 13.0 0.00 0.00 0.00 44 1006.8
20240617042017 72 249 3.0 13.0 0.00 0.00 0.00 44 1006.7
20240617041919 72 250 3.0 9.0 0.00 0.00 0.00 44 1006.8
20240617041910 72 163 4.0 11.0 0.00 0.00 0.00 44 1006.7
20240617041816 72 243 3.0 9.0 0.00 0.00 0.00 44 1006.8
20240617041800 72 201 4.0 10.0 0.00 0.00 0.00 44 1006.7
20240617041616 72 228 4.0 11.0 0.00 0.00 0.00 43 1006.7
20240617041517 72 232 4.0 11.0 0.00 0.00 0.00 43 1006.8
20240617041416 73 194 3.0 11.0 0.00 0.00 0.00 43 1006.7
20240617041316 73 253 3.0 11.0 0.00 0.00 0.00 43 1006.7
20240617041216 73 228 3.0 11.0 0.00 0.00 0.00 43 1006.7
20240617041149 73 260 3.0 11.0 0.00 0.00 0.00 43 1006.7
20240617041112 73 212 3.0 11.0 0.00 0.00 0.00 43 1006.7
20240617041017 73 210 3.0 11.0 0.00 0.00 0.00 43 1006.7
20240617040914 73 221 3.0 11.0 0.00 0.00 0.00 43 1006.7
20240617040812 73 238 3.0 11.0 0.00 0.00 0.00 43 1006.7
20240617040719 73 225 2.0 11.0 0.00 0.00 0.00 43 1006.7
20240617040702 73 219 2.0 11.0 0.00 0.00 0.00 43 1006.6
20240617040613 73 219 2.0 11.0 0.00 0.00 0.00 43 1006.6
20240617040512 73 249 3.0 11.0 0.00 0.00 0.00 43 1006.7
20240617040412 73 228 3.0 11.0 0.00 0.00 0.00 42 1006.7
20240617040310 73 269 3.0 11.0 0.00 0.00 0.00 42 1006.7
20240617040210 73 224 3.0 11.0 0.00 0.00 0.00 42 1006.7
20240617040149 73 253 3.0 13.0 0.00 0.00 0.00 42 1006.7
20240617040111 73 226 3.0 13.0 0.00 0.00 0.00 42 1006.7
20240617040010 74 221 3.0 13.0 0.00 0.00 0.00 42 1006.7
20240617035908 74 297 3.0 13.0 0.00 0.00 0.00 42 1006.7
20240617035808 74 250 3.0 13.0 0.00 0.00 0.00 42 1006.7
20240617035708 74 221 3.0 13.0 0.00 0.00 0.00 42 1006.7
20240617035656 74 262 3.0 13.0 0.00 0.00 0.00 42 1006.6
20240617035608 74 177 3.0 13.0 0.00 0.00 0.00 42 1006.6
20240617035509 74 215 3.0 13.0 0.00 0.00 0.00 42 1006.7
20240617035408 74 118 3.0 13.0 0.00 0.00 0.00 42 1006.6
20240617035316 74 236 3.0 13.0 0.00 0.00 0.00 41 1006.6
20240617035208 74 228 2.0 13.0 0.00 0.00 0.00 41 1006.6
20240617035142 74 250 2.0 11.0 0.00 0.00 0.00 41 1006.6
20240617035109 74 312 2.0 11.0 0.00 0.00 0.00 41 1006.6
20240617035008 74 242 2.0 11.0 0.00 0.00 0.00 41 1006.6
20240617034908 74 248 2.0 11.0 0.00 0.00 0.00 41 1006.6
20240617034809 74 245 2.0 11.0 0.00 0.00 0.00 41 1006.5
20240617034708 74 224 2.0 11.0 0.00 0.00 0.00 41 1006.5
20240617034642 74 276 2.0 11.0 0.00 0.00 0.00 41 1006.5
20240617034612 74 217 2.0 11.0 0.00 0.00 0.00 41 1006.5
20240617034524 74 235 2.0 11.0 0.00 0.00 0.00 41 1006.5
20240617034408 75 231 1.0 9.0 0.00 0.00 0.00 41 1006.5
20240617034308 75 271 1.0 9.0 0.00 0.00 0.00 41 1006.5
20240617034208 75 246 1.0 9.0 0.00 0.00 0.00 41 1006.5
20240617034142 75 225 2.0 9.0 0.00 0.00 0.00 41 1006.5
20240617034108 75 270 2.0 9.0 0.00 0.00 0.00 41 1006.6
20240617034004 75 250 2.0 9.0 0.00 0.00 0.00 41 1006.5
20240617033904 75 238 2.0 9.0 0.00 0.00 0.00 41 1006.5
20240617033805 75 212 2.0 9.0 0.00 0.00 0.00 41 1006.5
20240617033704 75 264 2.0 9.0 0.00 0.00 0.00 41 1006.6
20240617033641 75 177 2.0 9.0 0.00 0.00 0.00 40 1006.6
20240617033604 75 224 2.0 9.0 0.00 0.00 0.00 40 1006.6
20240617033505 75 186 3.0 9.0 0.00 0.00 0.00 40 1006.6
20240617033405 75 270 3.0 9.0 0.00 0.00 0.00 40 1006.6
20240617033305 75 253 3.0 9.0 0.00 0.00 0.00 40 1006.6
20240617033204 76 238 3.0 9.0 0.00 0.00 0.00 40 1006.5
20240617033143 76 261 3.0 12.0 0.00 0.00 0.00 40 1006.5
20240617033104 76 266 3.0 13.0 0.00 0.00 0.00 40 1006.6
20240617033004 76 217 3.0 13.0 0.00 0.00 0.00 40 1006.6
20240617032904 76 278 3.0 13.0 0.00 0.00 0.00 40 1006.5
20240617032804 76 249 3.0 13.0 0.00 0.00 0.00 40 1006.6
20240617032709 76 242 4.0 13.0 0.00 0.00 0.00 40 1006.5
20240617032656 76 328 4.0 13.0 0.00 0.00 0.00 40 1006.5
20240617032605 76 201 4.0 15.0 0.00 0.00 0.00 40 1006.6
20240617032504 76 229 4.0 15.0 0.00 0.00 0.00 40 1006.5
20240617032404 76 250 4.0 15.0 0.00 0.00 0.00 39 1006.5
20240617032305 76 267 4.0 15.0 0.00 0.00 0.00 39 1006.6
20240617032204 76 259 3.0 15.0 0.00 0.00 0.00 39 1006.5
20240617032154 76 219 3.0 15.0 0.00 0.00 0.00 39 1006.5
20240617032100 76 224 3.0 15.0 0.00 0.00 0.00 39 1006.5
20240617032001 76 243 3.0 15.0 0.00 0.00 0.00 39 1006.6
20240617031900 76 240 3.0 15.0 0.00 0.00 0.00 39 1006.5
20240617031800 77 262 3.0 15.0 0.00 0.00 0.00 39 1006.6
20240617031700 77 232 2.0 15.0 0.00 0.00 0.00 39 1006.6
20240617031643 77 254 2.0 15.0 0.00 0.00 0.00 39 1006.6
20240617031601 77 197 2.0 12.0 0.00 0.00 0.00 39 1006.6
20240617031500 77 217 2.0 12.0 0.00 0.00 0.00 39 1006.6
20240617031400 77 226 2.0 12.0 0.00 0.00 0.00 39 1006.6
20240617031300 77 195 2.0 12.0 0.00 0.00 0.00 38 1006.6
20240617031201 77 267 3.0 12.0 0.00 0.00 0.00 38 1006.5
20240617031143 77 293 3.0 12.0 0.00 0.00 0.00 38 1006.5
20240617031100 77 273 3.0 12.0 0.00 0.00 0.00 38 1006.5
20240617031006 77 243 2.0 12.0 0.00 0.00 0.00 38 1006.6
20240617030900 77 186 2.0 12.0 0.00 0.00 0.00 38 1006.6
20240617030800 77 284 2.0 10.0 0.00 0.00 0.00 38 1006.6
20240617030641 77 277 2.0 10.0 0.00 0.00 0.00 38 1006.6
20240617030601 77 253 2.0 8.0 0.00 0.00 0.00 38 1006.6
20240617030500 78 228 2.0 12.0 0.00 0.00 0.00 38 1006.6
20240617030401 78 226 2.0 12.0 0.00 0.00 0.00 38 1006.6
20240617030301 78 273 3.0 12.0 0.00 0.00 0.00 38 1006.6
20240617030154 78 224 3.0 12.0 0.00 0.00 0.00 38 1006.7
20240617030141 78 295 3.0 12.0 0.00 0.00 0.00 38 1006.7
20240617030054 78 260 3.0 12.0 0.00 0.00 0.00 38 1006.6
20240617025954 78 174 3.0 12.0 0.00 0.00 0.00 38 1006.6
20240617025854 78 243 4.0 12.0 0.00 0.00 0.00 38 1006.6
20240617025754 78 272 4.0 15.0 0.00 0.00 0.00 38 1006.6
20240617025654 78 217 4.0 15.0 0.00 0.00 0.00 38 1006.6
20240617025641 78 240 4.0 15.0 0.00 0.00 0.00 37 1006.6
20240617025554 78 248 5.0 15.0 0.00 0.00 0.00 38 1006.6
20240617025454 78 214 5.0 15.0 0.00 0.00 0.00 38 1006.6
20240617025354 78 217 4.0 15.0 0.00 0.00 0.00 38 1006.5
20240617025308 78 240 5.0 15.0 0.00 0.00 0.00 38 1006.6
20240617025140 78 224 5.0 15.0 0.00 0.00 0.00 38 1006.6
20240617025054 78 248 5.0 15.0 0.00 0.00 0.00 38 1006.6
20240617024954 79 256 5.0 15.0 0.00 0.00 0.00 38 1006.6
20240617024854 79 236 5.0 15.0 0.00 0.00 0.00 38 1006.5
20240617024752 79 193 5.0 12.0 0.00 0.00 0.00 38 1006.6
20240617024652 79 158 5.0 12.0 0.00 0.00 0.00 38 1006.6
20240617024639 79 203 5.0 12.0 0.00 0.00 0.00 38 1006.6
20240617024552 79 228 5.0 12.0 0.00 0.00 0.00 38 1006.6
20240617024452 79 155 5.0 12.0 0.00 0.00 0.00 38 1006.6
20240617024352 79 225 5.0 14.0 0.00 0.00 0.00 38 1006.5
20240617024252 79 232 6.0 14.0 0.00 0.00 0.00 38 1006.6
20240617024152 79 242 6.0 14.0 0.00 0.00 0.00 38 1006.6
20240617024140 79 217 6.0 14.0 0.00 0.00 0.00 38 1006.6
20240617024051 79 212 5.0 14.0 0.00 0.00 0.00 38 1006.7
20240617023952 79 236 5.0 14.0 0.00 0.00 0.00 38 1006.6
20240617023852 80 217 5.0 14.0 0.00 0.00 0.00 38 1006.6
20240617023752 80 231 5.0 14.0 0.00 0.00 0.00 37 1006.5
20240617023652 80 229 4.0 14.0 0.00 0.00 0.00 37 1006.6
20240617023637 80 238 4.0 14.0 0.00 0.00 0.00 37 1006.6
20240617023552 80 211 4.0 14.0 0.00 0.00 0.00 37 1006.6
20240617023452 80 188 4.0 14.0 0.00 0.00 0.00 37 1006.6
20240617023352 80 233 4.0 10.0 0.00 0.00 0.00 37 1006.6
20240617023252 80 218 4.0 9.0 0.00 0.00 0.00 37 1006.6
20240617023202 80 221 4.0 10.0 0.00 0.00 0.00 37 1006.6
20240617023151 80 252 4.0 10.0 0.00 0.00 0.00 37 1006.6
20240617023052 80 236 5.0 11.0 0.00 0.00 0.00 37 1006.6
20240617022952 80 236 5.0 15.0 0.00 0.00 0.00 37 1006.6
20240617022851 80 211 5.0 15.0 0.00 0.00 0.00 36 1006.6
20240617022752 80 222 5.0 15.0 0.00 0.00 0.00 36 1006.6
20240617022652 80 219 5.0 15.0 0.00 0.00 0.00 36 1006.6
20240617022639 80 225 5.0 15.0 0.00 0.00 0.00 36 1006.6
20240617022551 80 229 5.0 15.0 0.00 0.00 0.00 36 1006.6
20240617022450 80 201 5.0 15.0 0.00 0.00 0.00 36 1006.6
20240617022350 81 240 5.0 15.0 0.00 0.00 0.00 35 1006.6
20240617022248 81 226 5.0 15.0 0.00 0.00 0.00 35 1006.6
20240617022149 81 185 5.0 15.0 0.00 0.00 0.00 35 1006.6
20240617022132 81 243 5.0 15.0 0.00 0.00 0.00 35 1006.6
20240617022048 81 253 5.0 15.0 0.00 0.00 0.00 36 1006.6
20240617021948 81 110 4.0 11.0 0.00 0.00 0.00 35 1006.6
20240617021848 81 147 4.0 11.0 0.00 0.00 0.00 36 1006.5
20240617021748 81 239 4.0 11.0 0.00 0.00 0.00 36 1006.6
20240617021648 81 233 4.0 11.0 0.00 0.00 0.00 35 1006.6
20240617021629 81 232 4.0 11.0 0.00 0.00 0.00 35 1006.6
20240617021552 81 228 4.0 11.0 0.00 0.00 0.00 35 1006.6
20240617021446 81 207 4.0 11.0 0.00 0.00 0.00 35 1006.6
20240617021346 81 188 3.0 11.0 0.00 0.00 0.00 35 1006.6
20240617021247 81 233 3.0 11.0 0.00 0.00 0.00 35 1006.6
20240617021146 81 245 3.0 11.0 0.00 0.00 0.00 35 1006.6
20240617021128 82 235 3.0 11.0 0.00 0.00 0.00 35 1006.6
20240617021047 82 231 3.0 10.0 0.00 0.00 0.00 35 1006.6
20240617020946 82 304 4.0 13.0 0.00 0.00 0.00 35 1006.6
20240617020852 82 220 4.0 14.0 0.00 0.00 0.00 35 1006.6
20240617020846 82 217 4.0 14.0 0.00 0.00 0.00 35 1006.6
20240617020748 82 226 4.0 14.0 0.00 0.00 0.00 35 1006.7
20240617020739 82 233 4.0 14.0 0.00 0.00 0.00 35 1006.6
20240617020546 82 231 4.0 14.0 0.00 0.00 0.00 35 1006.6
20240617020447 82 148 4.0 14.0 0.00 0.00 0.00 35 1006.6
20240617020346 82 247 5.0 14.0 0.00 0.00 0.00 35 1006.6
20240617020246 82 173 5.0 14.0 0.00 0.00 0.00 35 1006.6
20240617020146 82 233 5.0 14.0 0.00 0.00 0.00 34 1006.6
20240617020128 82 183 5.0 14.0 0.00 0.00 0.00 34 1006.6
20240617020046 82 224 5.0 14.0 0.00 0.00 0.00 34 1006.6
20240617015942 82 262 5.0 11.0 0.00 0.00 0.00 35 1006.6
20240617015842 82 218 5.0 11.0 0.00 0.00 0.00 35 1006.6
20240617015743 82 229 5.0 11.0 0.00 0.00 0.00 35 1006.6
20240617015643 82 195 6.0 13.0 0.00 0.00 0.00 34 1006.6
20240617015627 82 208 6.0 13.0 0.00 0.00 0.00 34 1006.6
20240617015542 82 190 5.0 13.0 0.00 0.00 0.00 34 1006.6
20240617015442 82 239 5.0 13.0 0.00 0.00 0.00 35 1006.6
20240617015347 82 201 5.0 13.0 0.00 0.00 0.00 34 1006.6
20240617015242 83 222 5.0 13.0 0.00 0.00 0.00 34 1006.7
20240617015140 83 191 5.0 13.0 0.00 0.00 0.00 34 1006.6
20240617015128 83 236 5.0 13.0 0.00 0.00 0.00 34 1006.6
20240617015040 83 219 5.0 13.0 0.00 0.00 0.00 33 1006.7
20240617014940 83 245 5.0 13.0 0.00 0.00 0.00 34 1006.6
20240617014840 83 242 5.0 13.0 0.00 0.00 0.00 34 1006.6
20240617014738 83 243 5.0 13.0 0.00 0.00 0.00 34 1006.6
20240617014648 83 236 4.0 11.0 0.00 0.00 0.00 35 1006.6
20240617014638 83 211 4.0 11.0 0.00 0.00 0.00 35 1006.6
20240617014538 83 250 5.0 10.0 0.00 0.00 0.00 34 1006.6
20240617014438 83 183 5.0 10.0 0.00 0.00 0.00 34 1006.6
20240617014339 83 236 5.0 10.0 0.00 0.00 0.00 34 1006.6
20240617014238 83 219 4.0 10.0 0.00 0.00 0.00 34 1006.6
20240617014138 83 228 5.0 13.0 0.00 0.00 0.00 34 1006.6
20240617014124 83 177 5.0 13.0 0.00 0.00 0.00 34 1006.6
20240617014038 83 214 5.0 13.0 0.00 0.00 0.00 34 1006.7
20240617013938 83 167 5.0 13.0 0.00 0.00 0.00 33 1006.7
20240617013836 83 219 5.0 13.0 0.00 0.00 0.00 34 1006.7
20240617013737 83 277 5.0 13.0 0.00 0.00 0.00 33 1006.7
20240617013635 83 250 5.0 13.0 0.00 0.00 0.00 33 1006.7
20240617013622 83 247 5.0 13.0 0.00 0.00 0.00 33 1006.7
20240617013532 83 231 5.0 13.0 0.00 0.00 0.00 33 1006.7
20240617013433 83 195 5.0 16.0 0.00 0.00 0.00 33 1006.7
20240617013332 83 252 5.0 16.0 0.00 0.00 0.00 33 1006.6
20240617013232 83 222 5.0 16.0 0.00 0.00 0.00 33 1006.6
20240617013131 83 256 5.0 16.0 0.00 0.00 0.00 33 1006.6
20240617013122 83 194 5.0 16.0 0.00 0.00 0.00 33 1006.6
20240617013032 83 245 5.0 16.0 0.00 0.00 0.00 33 1006.6
20240617012932 83 270 5.0 16.0 0.00 0.00 0.00 32 1006.7
20240617012833 83 239 5.0 16.0 0.00 0.00 0.00 32 1006.6
20240617012732 83 274 5.0 16.0 0.00 0.00 0.00 32 1006.7
20240617012632 83 239 5.0 16.0 0.00 0.00 0.00 32 1006.7
20240617012622 83 210 5.0 16.0 0.00 0.00 0.00 32 1006.7
20240617012532 83 212 5.0 16.0 0.00 0.00 0.00 32 1006.7
20240617012433 83 280 5.0 13.0 0.00 0.00 0.00 32 1006.7
20240617012332 83 232 5.0 13.0 0.00 0.00 0.00 32 1006.7
20240617012232 83 174 5.0 13.0 0.00 0.00 0.00 32 1006.7
20240617012133 83 243 5.0 13.0 0.00 0.00 0.00 32 1006.7
20240617012122 83 224 5.0 13.0 0.00 0.00 0.00 32 1006.7
20240617012033 83 204 6.0 13.0 0.00 0.00 0.00 32 1006.8
20240617011933 83 284 6.0 13.0 0.00 0.00 0.00 32 1006.8
20240617011832 83 240 6.0 13.0 0.00 0.00 0.00 31 1006.8
20240617011732 83 231 6.0 13.0 0.00 0.00 0.00 32 1006.7
20240617011631 83 222 6.0 17.0 0.00 0.00 0.00 31 1006.7
20240617011530 83 232 7.0 17.0 0.00 0.00 0.00 31 1006.7
20240617011430 83 224 7.0 17.0 0.00 0.00 0.00 31 1006.7
20240617011330 83 214 6.0 17.0 0.00 0.00 0.00 31 1006.7
20240617011230 83 219 7.0 17.0 0.00 0.00 0.00 31 1006.7
20240617011132 83 222 7.0 17.0 0.00 0.00 0.00 31 1006.7
20240617011122 83 229 7.0 17.0 0.00 0.00 0.00 31 1006.7
20240617011030 83 245 7.0 17.0 0.00 0.00 0.00 31 1006.7
20240617010930 83 283 7.0 17.0 0.00 0.00 0.00 31 1006.6
20240617010830 83 242 7.0 17.0 0.00 0.00 0.00 31 1006.7
20240617010728 83 208 7.0 17.0 0.00 0.00 0.00 31 1006.7
20240617010642 83 226 7.0 16.0 0.00 0.00 0.00 31 1006.7
20240617010632 83 212 7.0 16.0 0.00 0.00 0.00 31 1006.7
20240617010528 83 265 7.0 16.0 0.00 0.00 0.00 31 1006.7
20240617010428 83 204 7.0 16.0 0.00 0.00 0.00 31 1006.7
20240617010328 83 225 7.0 16.0 0.00 0.00 0.00 31 1006.7
20240617010228 83 267 7.0 16.0 0.00 0.00 0.00 31 1006.7
20240617010130 83 160 8.0 16.0 0.00 0.00 0.00 30 1006.7
20240617010120 83 229 8.0 16.0 0.00 0.00 0.00 30 1006.7
20240617010029 84 238 8.0 16.0 0.00 0.00 0.00 31 1006.7
20240617005929 84 256 8.0 16.0 0.00 0.00 0.00 30 1006.7
20240617005840 84 181 8.0 18.0 0.00 0.00 0.00 31 1006.8
20240617005828 84 174 8.0 16.0 0.00 0.00 0.00 30 1006.8
20240617005739 84 200 8.0 16.0 0.00 0.00 0.00 30 1006.8
20240617005730 84 158 8.0 15.0 0.00 0.00 0.00 30 1006.8
20240617005528 84 218 8.0 19.0 0.00 0.00 0.00 30 1006.8
20240617005426 84 222 7.0 19.0 0.00 0.00 0.00 30 1006.8
20240617005326 84 245 7.0 19.0 0.00 0.00 0.00 31 1006.8
20240617005227 84 193 7.0 19.0 0.00 0.00 0.00 30 1006.8
20240617005130 84 231 7.0 19.0 0.00 0.00 0.00 30 1006.8
20240617005120 84 246 7.0 19.0 0.00 0.00 0.00 30 1006.8
20240617005027 84 240 7.0 19.0 0.00 0.00 0.00 30 1006.8
20240617004924 84 215 7.0 19.0 0.00 0.00 0.00 30 1006.8
20240617004825 84 204 7.0 19.0 0.00 0.00 0.00 30 1006.9
20240617004724 84 210 7.0 19.0 0.00 0.00 0.00 29 1006.8
20240617004623 85 229 6.0 19.0 0.00 0.00 0.00 29 1006.8
20240617004522 85 253 6.0 16.0 0.00 0.00 0.00 30 1006.8
20240617004422 85 225 6.0 16.0 0.00 0.00 0.00 30 1006.9
20240617004323 85 193 6.0 16.0 0.00 0.00 0.00 30 1006.9
20240617004222 85 236 5.0 16.0 0.00 0.00 0.00 30 1006.8
20240617004125 85 240 6.0 16.0 0.00 0.00 0.00 30 1006.8
20240617004019 85 243 6.0 16.0 0.00 0.00 0.00 30 1006.8
20240617003919 85 233 6.0 16.0 0.00 0.00 0.00 30 1006.9
20240617003846 85 212 6.0 17.0 0.00 0.00 0.00 30 1006.9
20240617003818 85 236 6.0 16.0 0.00 0.00 0.00 30 1006.8
20240617003733 85 224 6.0 17.0 0.00 0.00 0.00 30 1006.9
20240617003616 85 153 6.0 17.0 0.00 0.00 0.00 30 1006.9
20240617003516 85 228 7.0 17.0 0.00 0.00 0.00 29 1006.9
20240617003416 85 208 7.0 17.0 0.00 0.00 0.00 29 1006.8
20240617003349 85 222 8.0 17.0 0.00 0.00 0.00 30 1006.9